Wetterdaten: Montag, 24.05.2021
Datum Zeit Temp. Aussen Temp. o. S. Temp +5cm Feuchte Auss Luftdruck Regen Sonnenschein Regendauer Solar Windben Empfang
24.05.2021 00:00 11,9 C 11,1 C 8,9 C 72 % 1013,2 hPa 0,0 l/m 0 min 0 min 0 W/m 6,4 km/h (2 Bft) 100,00 %
24.05.2021 00:02 11,9 C 10,6 C 8,9 C 72 % 1013,2 hPa 0,0 l/m 0 min 0 min 0 W/m 6,4 km/h (2 Bft) 100,00 %
24.05.2021 00:04 11,8 C 10,6 C 8,4 C 72 % 1013,2 hPa 0,0 l/m 0 min 0 min 0 W/m 6,4 km/h (2 Bft) 100,00 %
24.05.2021 00:08 11,8 C 10,6 C 8,4 C 72 % 1013,2 hPa 0,0 l/m 0 min 0 min 0 W/m 16,1 km/h (3 Bft) 98,94 %
24.05.2021 00:10 11,7 C 10,6 C 8,4 C 72 % 1013,2 hPa 0,0 l/m 0 min 0 min 0 W/m 12,9 km/h (3 Bft) 100,00 %
24.05.2021 00:12 11,7 C 10,6 C 8,4 C 73 % 1013,2 hPa 0,0 l/m 0 min 0 min 0 W/m 6,4 km/h (2 Bft) 100,00 %
24.05.2021 00:14 11,7 C 10,6 C 8,4 C 73 % 1013,2 hPa 0,0 l/m 0 min 0 min 0 W/m 6,4 km/h (2 Bft) 100,00 %
24.05.2021 00:16 11,6 C 10,6 C 8,4 C 73 % 1013,2 hPa 0,0 l/m 0 min 0 min 0 W/m 6,4 km/h (2 Bft) 97,87 %
24.05.2021 00:18 11,6 C 10,6 C 8,4 C 73 % 1013,1 hPa 0,0 l/m 0 min 0 min 0 W/m 12,9 km/h (3 Bft) 100,00 %
24.05.2021 00:20 11,6 C 10,6 C 8,4 C 73 % 1013,1 hPa 0,0 l/m 0 min 0 min 0 W/m 6,4 km/h (2 Bft) 97,87 %
24.05.2021 00:22 11,6 C 10,6 C 8,4 C 73 % 1013,1 hPa 0,0 l/m 0 min 0 min 0 W/m 6,4 km/h (2 Bft) 100,00 %
24.05.2021 00:24 11,6 C 10,6 C 8,4 C 73 % 1013,1 hPa 0,0 l/m 0 min 0 min 0 W/m 6,4 km/h (2 Bft) 100,00 %
24.05.2021 00:26 11,5 C 10,6 C 8,4 C 73 % 1013,1 hPa 0,0 l/m 0 min 0 min 0 W/m 6,4 km/h (2 Bft) 93,62 %
24.05.2021 00:28 11,5 C 10,6 C 8,4 C 73 % 1013,1 hPa 0,0 l/m 0 min 0 min 0 W/m 12,9 km/h (3 Bft) 93,62 %
24.05.2021 00:30 11,5 C 10,6 C 8,4 C 74 % 1013,1 hPa 0,0 l/m 0 min 0 min 0 W/m 12,9 km/h (3 Bft) 51,16 %
24.05.2021 00:32 11,5 C 10,6 C 8,4 C 74 % 1013,0 hPa 0,0 l/m 0 min 0 min 0 W/m 6,4 km/h (2 Bft) 95,74 %
24.05.2021 00:34 11,4 C 10,6 C 8,4 C 74 % 1013,0 hPa 0,0 l/m 0 min 0 min 0 W/m 12,9 km/h (3 Bft) 95,65 %
24.05.2021 00:36 11,4 C 10,6 C 8,4 C 74 % 1013,0 hPa 0,0 l/m 0 min 0 min 0 W/m 6,4 km/h (2 Bft) 93,62 %
24.05.2021 00:38 11,4 C 10,6 C 8,4 C 74 % 1013,0 hPa 0,0 l/m 0 min 0 min 0 W/m 6,4 km/h (2 Bft) 95,74 %
24.05.2021 00:40 11,3 C 10,6 C 8,4 C 74 % 1013,0 hPa 0,0 l/m 0 min 0 min 0 W/m 16,1 km/h (3 Bft) 93,62 %
24.05.2021 00:42 11,3 C 10,6 C 8,4 C 74 % 1013,0 hPa 0,0 l/m 0 min 0 min 0 W/m 6,4 km/h (2 Bft) 89,36 %
24.05.2021 00:44 11,3 C 10,6 C 8,4 C 74 % 1013,0 hPa 0,0 l/m 0 min 0 min 0 W/m 12,9 km/h (3 Bft) 91,49 %
24.05.2021 00:46 11,2 C 10,6 C 8,4 C 74 % 1013,0 hPa 0,0 l/m 0 min 0 min 0 W/m 9,7 km/h (2 Bft) 93,48 %
24.05.2021 00:48 11,2 C 10,6 C 8,4 C 74 % 1012,9 hPa 0,0 l/m 0 min 0 min 0 W/m 6,4 km/h (2 Bft) 93,62 %
24.05.2021 00:50 11,2 C 10,0 C 8,4 C 74 % 1013,0 hPa 0,0 l/m 0 min 0 min 0 W/m 6,4 km/h (2 Bft) 93,62 %
24.05.2021 00:52 11,1 C 10,0 C 8,4 C 75 % 1012,9 hPa 0,0 l/m 0 min 0 min 0 W/m 12,9 km/h (3 Bft) 93,62 %
24.05.2021 00:54 11,1 C 10,0 C 8,4 C 75 % 1012,9 hPa 0,0 l/m 0 min 0 min 0 W/m 16,1 km/h (3 Bft) 95,74 %
24.05.2021 00:56 11,1 C 10,0 C 7,8 C 75 % 1012,9 hPa 0,0 l/m 0 min 0 min 0 W/m 6,4 km/h (2 Bft) 91,49 %
24.05.2021 00:58 11,1 C 10,0 C 7,8 C 75 % 1012,9 hPa 0,0 l/m 0 min 0 min 0 W/m 16,1 km/h (3 Bft) 93,48 %
24.05.2021 01:00 11,0 C 10,0 C 7,8 C 75 % 1012,9 hPa 0,0 l/m 0 min 0 min 0 W/m 16,1 km/h (3 Bft) 91,49 %
24.05.2021 01:02 11,0 C 10,0 C 7,8 C 75 % 1012,9 hPa 0,0 l/m 0 min 0 min 0 W/m 12,9 km/h (3 Bft) 91,49 %
24.05.2021 01:04 11,0 C 10,0 C 7,8 C 75 % 1012,9 hPa 0,0 l/m 0 min 0 min 0 W/m 6,4 km/h (2 Bft) 93,62 %
24.05.2021 01:06 11,0 C 10,0 C 7,8 C 75 % 1012,8 hPa 0,0 l/m 0 min 0 min 0 W/m 6,4 km/h (2 Bft) 95,74 %
24.05.2021 01:08 11,0 C 10,0 C 7,8 C 75 % 1012,8 hPa 0,0 l/m 0 min 0 min 0 W/m 12,9 km/h (3 Bft) 95,74 %
24.05.2021 01:10 10,9 C 10,0 C 7,8 C 76 % 1012,9 hPa 0,0 l/m 0 min 0 min 0 W/m 12,9 km/h (3 Bft) 95,65 %
24.05.2021 01:12 10,9 C 10,0 C 7,8 C 76 % 1012,8 hPa 0,0 l/m 0 min 0 min 0 W/m 6,4 km/h (2 Bft) 93,62 %
24.05.2021 01:14 10,9 C 10,0 C 7,8 C 76 % 1012,8 hPa 0,0 l/m 0 min 0 min 0 W/m 12,9 km/h (3 Bft) 95,74 %
24.05.2021 01:16 10,9 C 10,0 C 7,8 C 76 % 1012,7 hPa 0,0 l/m 0 min 0 min 0 W/m 12,9 km/h (3 Bft) 95,74 %
24.05.2021 01:18 10,8 C 10,0 C 7,8 C 76 % 1012,8 hPa 0,0 l/m 0 min 0 min 0 W/m 6,4 km/h (2 Bft) 91,49 %
24.05.2021 01:20 10,8 C 10,0 C 7,8 C 76 % 1012,8 hPa 0,0 l/m 0 min 0 min 0 W/m 16,1 km/h (3 Bft) 97,87 %
24.05.2021 01:22 10,8 C 10,0 C 7,8 C 76 % 1012,8 hPa 0,0 l/m 0 min 0 min 0 W/m 12,9 km/h (3 Bft) 95,65 %
24.05.2021 01:24 10,8 C 10,0 C 7,8 C 76 % 1012,7 hPa 0,0 l/m 0 min 0 min 0 W/m 16,1 km/h (3 Bft) 97,87 %
24.05.2021 01:26 10,8 C 10,0 C 7,8 C 76 % 1012,8 hPa 0,0 l/m 0 min 0 min 0 W/m 12,9 km/h (3 Bft) 97,87 %
24.05.2021 01:28 10,7 C 10,0 C 7,8 C 76 % 1012,7 hPa 0,0 l/m 0 min 0 min 0 W/m 12,9 km/h (3 Bft) 97,87 %
24.05.2021 01:30 10,7 C 10,0 C 7,8 C 76 % 1012,7 hPa 0,0 l/m 0 min 0 min 0 W/m 16,1 km/h (3 Bft) 97,87 %
24.05.2021 01:32 10,6 C 10,0 C 7,8 C 76 % 1012,7 hPa 0,0 l/m 0 min 0 min 0 W/m 9,7 km/h (2 Bft) 95,74 %
24.05.2021 01:34 10,6 C 10,0 C 7,8 C 76 % 1012,7 hPa 0,0 l/m 0 min 0 min 0 W/m 12,9 km/h (3 Bft) 97,83 %
24.05.2021 01:36 10,6 C 10,0 C 7,8 C 77 % 1012,7 hPa 0,0 l/m 0 min 0 min 0 W/m 16,1 km/h (3 Bft) 97,87 %
24.05.2021 01:38 10,6 C 10,0 C 7,8 C 77 % 1012,6 hPa 0,0 l/m 0 min 0 min 0 W/m 6,4 km/h (2 Bft) 97,87 %
24.05.2021 01:40 10,6 C 9,4 C 7,8 C 77 % 1012,7 hPa 0,0 l/m 0 min 0 min 0 W/m 9,7 km/h (2 Bft) 97,87 %
24.05.2021 01:42 10,5 C 9,4 C 7,8 C 77 % 1012,7 hPa 0,0 l/m 0 min 0 min 0 W/m 19,3 km/h (3 Bft) 97,87 %
24.05.2021 01:44 10,5 C 9,4 C 7,8 C 77 % 1012,6 hPa 0,0 l/m 0 min 0 min 0 W/m 12,9 km/h (3 Bft) 97,87 %
24.05.2021 01:46 10,5 C 10,0 C 7,8 C 77 % 1012,6 hPa 0,0 l/m 0 min 0 min 0 W/m 16,1 km/h (3 Bft) 97,83 %
24.05.2021 01:48 10,5 C 10,0 C 7,8 C 77 % 1012,6 hPa 0,0 l/m 0 min 0 min 0 W/m 12,9 km/h (3 Bft) 95,74 %
24.05.2021 01:50 10,5 C 10,0 C 7,8 C 77 % 1012,5 hPa 0,0 l/m 0 min 0 min 0 W/m 9,7 km/h (2 Bft) 97,87 %
24.05.2021 01:52 10,5 C 10,0 C 7,8 C 77 % 1012,5 hPa 0,0 l/m 0 min 0 min 0 W/m 12,9 km/h (3 Bft) 97,87 %
24.05.2021 01:54 10,5 C 10,0 C 7,8 C 77 % 1012,5 hPa 0,0 l/m 0 min 0 min 0 W/m 6,4 km/h (2 Bft) 97,87 %
24.05.2021 01:56 10,5 C 10,0 C 7,8 C 77 % 1012,5 hPa 0,0 l/m 0 min 0 min 0 W/m 16,1 km/h (3 Bft) 97,87 %
24.05.2021 01:58 10,5 C 10,0 C 7,8 C 77 % 1012,5 hPa 0,0 l/m 0 min 0 min 0 W/m 12,9 km/h (3 Bft) 100,00 %
24.05.2021 02:00 10,5 C 10,0 C 7,8 C 77 % 1012,5 hPa 0,0 l/m 0 min 0 min 0 W/m 12,9 km/h (3 Bft) 100,00 %
24.05.2021 02:02 10,5 C 10,0 C 7,8 C 77 % 1012,5 hPa 0,0 l/m 0 min 0 min 0 W/m 12,9 km/h (3 Bft) 100,00 %
24.05.2021 02:04 10,5 C 10,0 C 7,8 C 77 % 1012,4 hPa 0,0 l/m 0 min 0 min 0 W/m 19,3 km/h (3 Bft) 100,00 %
24.05.2021 02:06 10,5 C 10,0 C 7,8 C 77 % 1012,4 hPa 0,0 l/m 0 min 0 min 0 W/m 16,1 km/h (3 Bft) 97,87 %
24.05.2021 02:08 10,5 C 10,0 C 7,8 C 77 % 1012,4 hPa 0,0 l/m 0 min 0 min 0 W/m 16,1 km/h (3 Bft) 100,00 %
24.05.2021 02:10 10,5 C 10,0 C 7,8 C 78 % 1012,4 hPa 0,0 l/m 0 min 0 min 0 W/m 12,9 km/h (3 Bft) 100,00 %
24.05.2021 02:12 10,5 C 10,0 C 7,8 C 78 % 1012,3 hPa 0,0 l/m 0 min 0 min 0 W/m 12,9 km/h (3 Bft) 97,87 %
24.05.2021 02:14 10,5 C 10,0 C 7,8 C 78 % 1012,3 hPa 0,0 l/m 0 min 0 min 0 W/m 12,9 km/h (3 Bft) 97,87 %
24.05.2021 02:16 10,5 C 10,0 C 7,3 C 78 % 1012,2 hPa 0,0 l/m 0 min 0 min 0 W/m 12,9 km/h (3 Bft) 97,87 %
24.05.2021 02:18 10,5 C 10,0 C 7,3 C 78 % 1012,2 hPa 0,0 l/m 0 min 0 min 0 W/m 12,9 km/h (3 Bft) 100,00 %
24.05.2021 02:20 10,4 C 9,4 C 7,3 C 78 % 1012,2 hPa 0,0 l/m 0 min 0 min 0 W/m 16,1 km/h (3 Bft) 100,00 %
24.05.2021 02:22 10,4 C 9,4 C 7,3 C 78 % 1012,2 hPa 0,0 l/m 0 min 0 min 0 W/m 16,1 km/h (3 Bft) 97,87 %
24.05.2021 02:24 10,4 C 9,4 C 7,3 C 78 % 1012,1 hPa 0,0 l/m 0 min 0 min 0 W/m 6,4 km/h (2 Bft) 100,00 %
24.05.2021 02:26 10,4 C 9,4 C 7,3 C 78 % 1012,1 hPa 0,0 l/m 0 min 0 min 0 W/m 16,1 km/h (3 Bft) 97,87 %
24.05.2021 02:28 10,4 C 9,4 C 7,3 C 78 % 1012,0 hPa 0,0 l/m 0 min 0 min 0 W/m 12,9 km/h (3 Bft) 100,00 %
24.05.2021 02:30 10,4 C 9,4 C 7,3 C 78 % 1012,0 hPa 0,0 l/m 0 min 0 min 0 W/m 9,7 km/h (2 Bft) 100,00 %
24.05.2021 02:32 10,4 C 9,4 C 7,3 C 78 % 1012,0 hPa 0,0 l/m 0 min 0 min 0 W/m 12,9 km/h (3 Bft) 97,83 %
24.05.2021 02:34 10,4 C 9,4 C 7,3 C 79 % 1012,0 hPa 0,0 l/m 0 min 0 min 0 W/m 12,9 km/h (3 Bft) 100,00 %
24.05.2021 02:36 10,4 C 9,4 C 7,3 C 78 % 1011,9 hPa 0,0 l/m 0 min 0 min 0 W/m 19,3 km/h (3 Bft) 100,00 %
24.05.2021 02:38 10,4 C 9,4 C 7,3 C 79 % 1011,9 hPa 0,0 l/m 0 min 0 min 0 W/m 16,1 km/h (3 Bft) 100,00 %
24.05.2021 02:40 10,4 C 9,4 C 7,3 C 79 % 1011,9 hPa 0,0 l/m 0 min 0 min 0 W/m 16,1 km/h (3 Bft) 100,00 %
24.05.2021 02:42 10,3 C 9,4 C 7,3 C 79 % 1011,9 hPa 0,0 l/m 0 min 0 min 0 W/m 29,0 km/h (5 Bft) 97,87 %
24.05.2021 02:44 10,3 C 9,4 C 7,3 C 79 % 1011,9 hPa 0,0 l/m 0 min 0 min 0 W/m 19,3 km/h (3 Bft) 97,83 %
24.05.2021 02:46 10,3 C 9,4 C 7,3 C 79 % 1011,9 hPa 0,0 l/m 0 min 0 min 0 W/m 12,9 km/h (3 Bft) 100,00 %
24.05.2021 02:48 10,3 C 9,4 C 7,3 C 79 % 1011,8 hPa 0,0 l/m 0 min 0 min 0 W/m 16,1 km/h (3 Bft) 100,00 %
24.05.2021 02:50 10,3 C 9,4 C 7,3 C 79 % 1011,8 hPa 0,0 l/m 0 min 0 min 0 W/m 16,1 km/h (3 Bft) 100,00 %
24.05.2021 02:52 10,3 C 9,4 C 7,3 C 79 % 1011,7 hPa 0,0 l/m 0 min 0 min 0 W/m 19,3 km/h (3 Bft) 95,74 %
24.05.2021 02:54 10,3 C 9,4 C 7,3 C 80 % 1011,7 hPa 0,0 l/m 0 min 0 min 0 W/m 16,1 km/h (3 Bft) 100,00 %
24.05.2021 02:56 10,3 C 9,4 C 7,3 C 80 % 1011,7 hPa 0,0 l/m 0 min 0 min 0 W/m 16,1 km/h (3 Bft) 97,83 %
24.05.2021 02:58 10,3 C 9,4 C 7,3 C 80 % 1011,7 hPa 0,0 l/m 0 min 0 min 0 W/m 12,9 km/h (3 Bft) 97,87 %
24.05.2021 03:00 10,3 C 9,4 C 7,3 C 80 % 1011,7 hPa 0,0 l/m 0 min 0 min 0 W/m 19,3 km/h (3 Bft) 97,87 %
24.05.2021 03:02 10,3 C 9,4 C 7,3 C 80 % 1011,6 hPa 0,0 l/m 0 min 0 min 0 W/m 16,1 km/h (3 Bft) 97,87 %
24.05.2021 03:04 10,3 C 9,4 C 7,3 C 80 % 1011,6 hPa 0,0 l/m 0 min 0 min 0 W/m 12,9 km/h (3 Bft) 95,74 %
24.05.2021 03:06 10,3 C 9,4 C 7,3 C 80 % 1011,6 hPa 0,0 l/m 0 min 0 min 0 W/m 6,4 km/h (2 Bft) 97,87 %
24.05.2021 03:08 10,3 C 9,4 C 7,3 C 80 % 1011,5 hPa 0,0 l/m 0 min 0 min 0 W/m 12,9 km/h (3 Bft) 95,65 %
24.05.2021 03:10 10,3 C 9,4 C 7,3 C 80 % 1011,5 hPa 0,0 l/m 0 min 0 min 0 W/m 6,4 km/h (2 Bft) 97,87 %
24.05.2021 03:12 10,3 C 9,4 C 7,3 C 80 % 1011,5 hPa 0,0 l/m 0 min 0 min 0 W/m 16,1 km/h (3 Bft) 95,74 %
24.05.2021 03:14 10,3 C 9,4 C 7,3 C 80 % 1011,4 hPa 0,0 l/m 0 min 0 min 0 W/m 6,4 km/h (2 Bft) 95,74 %
24.05.2021 03:16 10,3 C 9,4 C 7,3 C 81 % 1011,4 hPa 0,0 l/m 0 min 0 min 0 W/m 12,9 km/h (3 Bft) 97,87 %
24.05.2021 03:18 10,3 C 9,4 C 7,3 C 81 % 1011,4 hPa 0,0 l/m 0 min 0 min 0 W/m 12,9 km/h (3 Bft) 97,87 %
24.05.2021 03:20 10,3 C 9,4 C 7,3 C 81 % 1011,4 hPa 0,0 l/m 0 min 0 min 0 W/m 12,9 km/h (3 Bft) 97,83 %
24.05.2021 03:22 10,3 C 9,4 C 7,3 C 81 % 1011,4 hPa 0,0 l/m 0 min 0 min 0 W/m 12,9 km/h (3 Bft) 97,87 %
24.05.2021 03:24 10,3 C 9,4 C 7,3 C 81 % 1011,4 hPa 0,0 l/m 0 min 0 min 0 W/m 19,3 km/h (3 Bft) 95,74 %
24.05.2021 03:26 10,3 C 9,4 C 7,3 C 82 % 1011,4 hPa 0,0 l/m 0 min 0 min 0 W/m 12,9 km/h (3 Bft) 95,74 %
24.05.2021 03:28 10,3 C 9,4 C 7,3 C 82 % 1011,3 hPa 0,0 l/m 0 min 0 min 0 W/m 6,4 km/h (2 Bft) 97,87 %
24.05.2021 03:30 10,3 C 9,4 C 7,3 C 82 % 1011,3 hPa 0,0 l/m 0 min 0 min 0 W/m 12,9 km/h (3 Bft) 97,87 %
24.05.2021 03:32 10,3 C 9,4 C 7,3 C 82 % 1011,3 hPa 0,0 l/m 0 min 0 min 0 W/m 12,9 km/h (3 Bft) 95,65 %
24.05.2021 03:34 10,3 C 9,4 C 7,3 C 82 % 1011,2 hPa 0,0 l/m 0 min 0 min 0 W/m 6,4 km/h (2 Bft) 95,35 %
24.05.2021 03:36 10,3 C 9,4 C 7,3 C 82 % 1011,2 hPa 0,0 l/m 0 min 0 min 0 W/m 12,9 km/h (3 Bft) 93,62 %
24.05.2021 03:38 10,3 C 9,4 C 7,3 C 83 % 1011,2 hPa 0,0 l/m 0 min 0 min 0 W/m 6,4 km/h (2 Bft) 95,74 %
24.05.2021 03:40 10,3 C 9,4 C 7,3 C 83 % 1011,2 hPa 0,0 l/m 0 min 0 min 0 W/m 12,9 km/h (3 Bft) 97,87 %
24.05.2021 03:42 10,3 C 9,4 C 7,3 C 83 % 1011,2 hPa 0,0 l/m 0 min 0 min 0 W/m 12,9 km/h (3 Bft) 97,87 %
24.05.2021 03:44 10,3 C 9,4 C 7,8 C 83 % 1011,2 hPa 0,0 l/m 0 min 0 min 0 W/m 12,9 km/h (3 Bft) 97,83 %
24.05.2021 03:46 10,3 C 9,4 C 7,8 C 83 % 1011,1 hPa 0,0 l/m 0 min 0 min 0 W/m 12,9 km/h (3 Bft) 95,74 %
24.05.2021 03:48 10,3 C 9,4 C 7,8 C 83 % 1011,2 hPa 0,0 l/m 0 min 0 min 0 W/m 12,9 km/h (3 Bft) 97,87 %
24.05.2021 03:50 10,3 C 9,4 C 7,8 C 83 % 1011,1 hPa 0,0 l/m 0 min 0 min 0 W/m 6,4 km/h (2 Bft) 97,87 %
24.05.2021 03:52 10,3 C 9,4 C 7,3 C 83 % 1011,1 hPa 0,0 l/m 0 min 0 min 0 W/m 19,3 km/h (3 Bft) 97,87 %
24.05.2021 03:54 10,3 C 9,4 C 7,3 C 83 % 1011,1 hPa 0,0 l/m 0 min 0 min 0 W/m 16,1 km/h (3 Bft) 97,87 %
24.05.2021 03:56 10,3 C 9,4 C 7,8 C 83 % 1011,1 hPa 0,0 l/m 0 min 0 min 0 W/m 6,4 km/h (2 Bft) 95,65 %
24.05.2021 03:58 10,3 C 9,4 C 7,3 C 83 % 1011,1 hPa 0,0 l/m 0 min 0 min 0 W/m 9,7 km/h (2 Bft) 97,87 %
24.05.2021 04:00 10,3 C 9,4 C 7,3 C 83 % 1011,0 hPa 0,0 l/m 0 min 0 min 0 W/m 6,4 km/h (2 Bft) 97,87 %
24.05.2021 04:02 10,3 C 9,4 C 7,3 C 83 % 1011,1 hPa 0,0 l/m 0 min 0 min 0 W/m 6,4 km/h (2 Bft) 96,00 %
24.05.2021 04:04 10,3 C 9,4 C 7,3 C 84 % 1011,0 hPa 0,0 l/m 0 min 0 min 0 W/m 6,4 km/h (2 Bft) 93,62 %
24.05.2021 04:06 10,3 C 9,4 C 7,3 C 84 % 1011,0 hPa 0,0 l/m 0 min 0 min 0 W/m 6,4 km/h (2 Bft) 97,87 %
24.05.2021 04:08 10,3 C 9,4 C 7,3 C 84 % 1010,9 hPa 0,0 l/m 0 min 0 min 0 W/m 6,4 km/h (2 Bft) 100,00 %
24.05.2021 04:10 10,3 C 9,4 C 7,3 C 84 % 1010,8 hPa 0,0 l/m 0 min 0 min 0 W/m 6,4 km/h (2 Bft) 97,87 %
24.05.2021 04:12 10,3 C 9,4 C 7,8 C 84 % 1010,8 hPa 0,0 l/m 0 min 0 min 0 W/m 6,4 km/h (2 Bft) 97,87 %
24.05.2021 04:14 10,3 C 9,4 C 7,3 C 84 % 1010,8 hPa 0,0 l/m 0 min 0 min 0 W/m 12,9 km/h (3 Bft) 95,74 %
24.05.2021 04:16 10,3 C 9,4 C 7,8 C 84 % 1010,8 hPa 0,0 l/m 0 min 0 min 0 W/m 12,9 km/h (3 Bft) 97,87 %
24.05.2021 04:18 10,3 C 9,4 C 7,8 C 85 % 1010,8 hPa 0,0 l/m 0 min 0 min 0 W/m 6,4 km/h (2 Bft) 97,87 %
24.05.2021 04:20 10,3 C 9,4 C 7,8 C 84 % 1010,8 hPa 0,0 l/m 0 min 0 min 0 W/m 12,9 km/h (3 Bft) 100,00 %
24.05.2021 04:22 10,3 C 9,4 C 7,8 C 85 % 1010,8 hPa 0,0 l/m 0 min 0 min 0 W/m 6,4 km/h (2 Bft) 100,00 %
24.05.2021 04:24 10,3 C 9,4 C 7,8 C 85 % 1010,8 hPa 0,0 l/m 0 min 0 min 0 W/m 12,9 km/h (3 Bft) 100,00 %
24.05.2021 04:26 10,3 C 9,4 C 7,8 C 85 % 1010,9 hPa 0,0 l/m 0 min 0 min 0 W/m 16,1 km/h (3 Bft) 100,00 %
24.05.2021 04:28 10,3 C 10,0 C 7,8 C 85 % 1010,9 hPa 0,0 l/m 0 min 0 min 0 W/m 16,1 km/h (3 Bft) 97,87 %
24.05.2021 04:30 10,3 C 10,0 C 7,8 C 85 % 1010,8 hPa 0,0 l/m 0 min 0 min 0 W/m 12,9 km/h (3 Bft) 97,87 %
24.05.2021 04:32 10,3 C 10,0 C 7,8 C 85 % 1010,8 hPa 0,0 l/m 0 min 0 min 0 W/m 12,9 km/h (3 Bft) 100,00 %
24.05.2021 04:34 10,3 C 10,0 C 7,8 C 85 % 1010,7 hPa 0,0 l/m 0 min 0 min 0 W/m 16,1 km/h (3 Bft) 100,00 %
24.05.2021 04:36 10,4 C 10,0 C 7,8 C 85 % 1010,8 hPa 0,0 l/m 0 min 0 min 0 W/m 9,7 km/h (2 Bft) 100,00 %
24.05.2021 04:38 10,4 C 10,0 C 7,8 C 85 % 1010,8 hPa 0,0 l/m 0 min 0 min 0 W/m 12,9 km/h (3 Bft) 100,00 %
24.05.2021 04:40 10,4 C 10,0 C 7,8 C 85 % 1010,7 hPa 0,0 l/m 0 min 0 min 0 W/m 19,3 km/h (3 Bft) 100,00 %
24.05.2021 04:42 10,4 C 10,0 C 7,8 C 85 % 1010,7 hPa 0,0 l/m 0 min 0 min 0 W/m 16,1 km/h (3 Bft) 100,00 %
24.05.2021 04:44 10,4 C 10,0 C 7,8 C 85 % 1010,7 hPa 0,0 l/m 0 min 0 min 0 W/m 16,1 km/h (3 Bft) 100,00 %
24.05.2021 04:46 10,4 C 10,0 C 7,8 C 85 % 1010,6 hPa 0,0 l/m 0 min 0 min 0 W/m 19,3 km/h (3 Bft) 95,74 %
24.05.2021 04:48 10,5 C 10,0 C 7,8 C 84 % 1010,6 hPa 0,0 l/m 0 min 0 min 0 W/m 19,3 km/h (3 Bft) 100,00 %
24.05.2021 04:50 10,5 C 10,0 C 7,8 C 84 % 1010,6 hPa 0,0 l/m 0 min 0 min 0 W/m 9,7 km/h (2 Bft) 100,00 %
24.05.2021 04:52 10,5 C 10,0 C 7,8 C 84 % 1010,6 hPa 0,0 l/m 0 min 0 min 0 W/m 12,9 km/h (3 Bft) 97,87 %
24.05.2021 04:54 10,5 C 10,0 C 7,8 C 84 % 1010,5 hPa 0,0 l/m 0 min 0 min 0 W/m 19,3 km/h (3 Bft) 100,00 %
24.05.2021 04:56 10,5 C 10,0 C 7,8 C 84 % 1010,5 hPa 0,0 l/m 0 min 0 min 0 W/m 9,7 km/h (2 Bft) 100,00 %
24.05.2021 04:58 10,6 C 10,0 C 7,8 C 84 % 1010,5 hPa 0,0 l/m 0 min 0 min 0 W/m 16,1 km/h (3 Bft) 100,00 %
24.05.2021 05:00 10,6 C 10,0 C 7,8 C 84 % 1010,4 hPa 0,0 l/m 0 min 0 min 0 W/m 12,9 km/h (3 Bft) 100,00 %
24.05.2021 05:02 10,6 C 10,0 C 8,4 C 84 % 1010,4 hPa 0,0 l/m 0 min 0 min 0 W/m 16,1 km/h (3 Bft) 97,87 %
24.05.2021 05:04 10,7 C 10,0 C 8,4 C 84 % 1010,5 hPa 0,0 l/m 0 min 0 min 0 W/m 19,3 km/h (3 Bft) 100,00 %
24.05.2021 05:06 10,7 C 10,0 C 8,4 C 84 % 1010,5 hPa 0,0 l/m 0 min 0 min 0 W/m 16,1 km/h (3 Bft) 100,00 %
24.05.2021 05:08 10,7 C 10,0 C 8,4 C 84 % 1010,5 hPa 0,0 l/m 0 min 0 min 0 W/m 16,1 km/h (3 Bft) 100,00 %
24.05.2021 05:10 10,8 C 10,0 C 8,4 C 84 % 1010,5 hPa 0,0 l/m 0 min 0 min 0 W/m 19,3 km/h (3 Bft) 95,74 %
24.05.2021 05:12 10,8 C 10,0 C 8,4 C 84 % 1010,5 hPa 0,0 l/m 0 min 0 min 0 W/m 9,7 km/h (2 Bft) 97,87 %
24.05.2021 05:14 10,8 C 10,0 C 8,4 C 84 % 1010,5 hPa 0,0 l/m 0 min 0 min 0 W/m 12,9 km/h (3 Bft) 97,87 %
24.05.2021 05:16 10,8 C 10,0 C 8,4 C 84 % 1010,4 hPa 0,0 l/m 0 min 0 min 0 W/m 16,1 km/h (3 Bft) 95,74 %
24.05.2021 05:18 10,8 C 10,0 C 8,4 C 84 % 1010,4 hPa 0,0 l/m 0 min 0 min 0 W/m 12,9 km/h (3 Bft) 97,83 %
24.05.2021 05:20 10,8 C 10,0 C 8,4 C 84 % 1010,4 hPa 0,0 l/m 0 min 0 min 0 W/m 19,3 km/h (3 Bft) 95,74 %
24.05.2021 05:22 10,8 C 10,0 C 7,8 C 84 % 1010,4 hPa 0,0 l/m 0 min 0 min 0 W/m 25,7 km/h (4 Bft) 95,74 %
24.05.2021 05:24 10,8 C 10,0 C 7,8 C 84 % 1010,4 hPa 0,0 l/m 0 min 0 min 0 W/m 12,9 km/h (3 Bft) 95,74 %
24.05.2021 05:26 10,8 C 10,0 C 7,8 C 84 % 1010,3 hPa 0,0 l/m 0 min 0 min 0 W/m 12,9 km/h (3 Bft) 97,87 %
24.05.2021 05:28 10,8 C 10,0 C 8,4 C 84 % 1010,4 hPa 0,0 l/m 0 min 0 min 0 W/m 12,9 km/h (3 Bft) 97,87 %
24.05.2021 05:30 10,8 C 10,0 C 8,4 C 84 % 1010,3 hPa 0,0 l/m 0 min 0 min 0 W/m 16,1 km/h (3 Bft) 93,48 %
24.05.2021 05:32 10,8 C 10,0 C 8,4 C 84 % 1010,4 hPa 0,0 l/m 0 min 0 min 0 W/m 25,7 km/h (4 Bft) 95,74 %
24.05.2021 05:34 10,8 C 10,0 C 8,4 C 84 % 1010,3 hPa 0,0 l/m 0 min 0 min 0 W/m 25,7 km/h (4 Bft) 95,74 %
24.05.2021 05:36 10,8 C 10,0 C 8,4 C 84 % 1010,3 hPa 0,0 l/m 0 min 0 min 4 W/m 16,1 km/h (3 Bft) 93,62 %
24.05.2021 05:38 10,8 C 10,0 C 8,4 C 84 % 1010,3 hPa 0,0 l/m 0 min 0 min 5 W/m 16,1 km/h (3 Bft) 95,74 %
24.05.2021 05:40 10,8 C 10,0 C 8,4 C 84 % 1010,3 hPa 0,0 l/m 0 min 0 min 6 W/m 9,7 km/h (2 Bft) 93,62 %
24.05.2021 05:42 10,8 C 10,0 C 8,4 C 84 % 1010,3 hPa 0,0 l/m 0 min 0 min 8 W/m 16,1 km/h (3 Bft) 95,65 %
24.05.2021 05:44 10,8 C 10,0 C 8,4 C 84 % 1010,2 hPa 0,0 l/m 0 min 0 min 10 W/m 12,9 km/h (3 Bft) 97,87 %
24.05.2021 05:46 10,8 C 10,0 C 8,4 C 84 % 1010,3 hPa 0,0 l/m 0 min 0 min 11 W/m 16,1 km/h (3 Bft) 95,74 %
24.05.2021 05:48 10,8 C 10,0 C 8,4 C 84 % 1010,3 hPa 0,0 l/m 0 min 0 min 12 W/m 16,1 km/h (3 Bft) 95,74 %
24.05.2021 05:50 10,8 C 10,6 C 8,4 C 83 % 1010,3 hPa 0,0 l/m 0 min 0 min 14 W/m 22,5 km/h (4 Bft) 95,74 %
24.05.2021 05:52 10,8 C 10,6 C 8,4 C 83 % 1010,2 hPa 0,0 l/m 0 min 0 min 17 W/m 16,1 km/h (3 Bft) 93,62 %
24.05.2021 05:54 10,8 C 10,6 C 8,4 C 83 % 1010,3 hPa 0,0 l/m 0 min 0 min 18 W/m 19,3 km/h (3 Bft) 95,65 %
24.05.2021 05:56 10,9 C 10,6 C 8,4 C 83 % 1010,2 hPa 0,0 l/m 0 min 0 min 19 W/m 16,1 km/h (3 Bft) 95,74 %
24.05.2021 05:58 10,9 C 10,6 C 8,4 C 83 % 1010,2 hPa 0,0 l/m 0 min 0 min 21 W/m 16,1 km/h (3 Bft) 95,74 %
24.05.2021 06:00 10,9 C 10,6 C 8,4 C 83 % 1010,3 hPa 0,0 l/m 0 min 0 min 23 W/m 22,5 km/h (4 Bft) 91,49 %
24.05.2021 06:02 11,0 C 10,6 C 8,4 C 83 % 1010,2 hPa 0,0 l/m 0 min 0 min 26 W/m 19,3 km/h (3 Bft) 95,74 %
24.05.2021 06:04 11,0 C 10,6 C 8,4 C 83 % 1010,2 hPa 0,0 l/m 0 min 0 min 27 W/m 16,1 km/h (3 Bft) 93,62 %
24.05.2021 06:08 11,1 C 10,6 C 8,4 C 82 % 1010,1 hPa 0,0 l/m 0 min 0 min 30 W/m 19,3 km/h (3 Bft) 95,70 %
24.05.2021 06:10 11,1 C 10,6 C 8,4 C 82 % 1010,1 hPa 0,0 l/m 0 min 0 min 33 W/m 19,3 km/h (3 Bft) 95,74 %
24.05.2021 06:12 11,1 C 10,6 C 8,4 C 82 % 1010,1 hPa 0,0 l/m 0 min 0 min 33 W/m 16,1 km/h (3 Bft) 93,62 %
24.05.2021 06:14 11,1 C 10,6 C 8,4 C 82 % 1010,1 hPa 0,0 l/m 0 min 0 min 34 W/m 22,5 km/h (4 Bft) 95,74 %
24.05.2021 06:16 11,1 C 10,6 C 8,4 C 82 % 1010,0 hPa 0,0 l/m 0 min 0 min 38 W/m 16,1 km/h (3 Bft) 97,87 %
24.05.2021 06:18 11,2 C 10,6 C 8,4 C 82 % 1010,0 hPa 0,0 l/m 0 min 0 min 39 W/m 16,1 km/h (3 Bft) 95,65 %
24.05.2021 06:20 11,2 C 10,6 C 8,4 C 82 % 1010,0 hPa 0,0 l/m 0 min 0 min 38 W/m 22,5 km/h (4 Bft) 97,87 %
24.05.2021 06:22 11,2 C 10,6 C 8,4 C 82 % 1010,0 hPa 0,0 l/m 0 min 0 min 37 W/m 16,1 km/h (3 Bft) 95,74 %
24.05.2021 06:24 11,3 C 10,6 C 8,4 C 82 % 1010,0 hPa 0,0 l/m 0 min 0 min 37 W/m 12,9 km/h (3 Bft) 97,87 %
24.05.2021 06:26 11,3 C 10,6 C 8,4 C 82 % 1010,0 hPa 0,0 l/m 0 min 0 min 38 W/m 12,9 km/h (3 Bft) 97,87 %
24.05.2021 06:28 11,3 C 10,6 C 8,4 C 82 % 1010,0 hPa 0,0 l/m 0 min 0 min 40 W/m 19,3 km/h (3 Bft) 95,74 %
24.05.2021 06:30 11,3 C 10,6 C 8,4 C 81 % 1010,0 hPa 0,0 l/m 0 min 0 min 36 W/m 12,9 km/h (3 Bft) 97,83 %
24.05.2021 06:32 11,3 C 10,6 C 8,4 C 81 % 1010,0 hPa 0,0 l/m 0 min 0 min 37 W/m 16,1 km/h (3 Bft) 97,87 %
24.05.2021 06:34 11,3 C 10,6 C 8,4 C 81 % 1010,0 hPa 0,0 l/m 0 min 0 min 42 W/m 19,3 km/h (3 Bft) 93,62 %
24.05.2021 06:36 11,3 C 10,6 C 8,9 C 81 % 1010,0 hPa 0,0 l/m 0 min 0 min 48 W/m 16,1 km/h (3 Bft) 97,87 %
24.05.2021 06:38 11,3 C 11,1 C 8,9 C 81 % 1010,0 hPa 0,0 l/m 0 min 0 min 48 W/m 16,1 km/h (3 Bft) 95,74 %
24.05.2021 06:40 11,4 C 11,1 C 8,9 C 81 % 1010,0 hPa 0,0 l/m 0 min 0 min 45 W/m 16,1 km/h (3 Bft) 97,87 %
24.05.2021 06:42 11,4 C 11,1 C 8,9 C 81 % 1010,0 hPa 0,0 l/m 0 min 0 min 41 W/m 16,1 km/h (3 Bft) 100,00 %
24.05.2021 06:44 11,4 C 11,1 C 8,9 C 81 % 1010,0 hPa 0,0 l/m 0 min 0 min 46 W/m 19,3 km/h (3 Bft) 97,87 %
24.05.2021 06:46 11,4 C 11,1 C 8,9 C 81 % 1010,1 hPa 0,0 l/m 0 min 0 min 52 W/m 22,5 km/h (4 Bft) 97,87 %
24.05.2021 06:48 11,4 C 11,1 C 8,9 C 81 % 1010,0 hPa 0,0 l/m 0 min 0 min 54 W/m 16,1 km/h (3 Bft) 93,62 %
24.05.2021 06:50 11,5 C 11,1 C 8,9 C 81 % 1010,1 hPa 0,0 l/m 0 min 0 min 51 W/m 19,3 km/h (3 Bft) 95,74 %
24.05.2021 06:52 11,5 C 11,1 C 8,9 C 81 % 1010,0 hPa 0,0 l/m 0 min 0 min 48 W/m 16,1 km/h (3 Bft) 97,87 %
24.05.2021 06:54 11,5 C 11,1 C 8,9 C 80 % 1010,0 hPa 0,0 l/m 0 min 0 min 37 W/m 12,9 km/h (3 Bft) 97,83 %
24.05.2021 06:56 11,5 C 11,1 C 8,9 C 80 % 1009,9 hPa 0,0 l/m 0 min 0 min 39 W/m 12,9 km/h (3 Bft) 95,74 %
24.05.2021 06:58 11,6 C 11,1 C 8,9 C 80 % 1009,9 hPa 0,0 l/m 0 min 0 min 42 W/m 19,3 km/h (3 Bft) 97,87 %
24.05.2021 07:00 11,6 C 11,1 C 8,9 C 80 % 1009,9 hPa 0,0 l/m 0 min 0 min 43 W/m 19,3 km/h (3 Bft) 97,87 %
24.05.2021 07:02 11,6 C 11,1 C 8,9 C 80 % 1010,0 hPa 0,0 l/m 0 min 0 min 42 W/m 19,3 km/h (3 Bft) 97,87 %
24.05.2021 07:04 11,6 C 11,1 C 8,9 C 80 % 1009,9 hPa 0,0 l/m 0 min 0 min 44 W/m 19,3 km/h (3 Bft) 97,83 %
24.05.2021 07:06 11,6 C 11,1 C 8,9 C 80 % 1009,9 hPa 0,0 l/m 0 min 0 min 45 W/m 25,7 km/h (4 Bft) 97,87 %
24.05.2021 07:08 11,6 C 11,1 C 8,9 C 80 % 1009,9 hPa 0,0 l/m 0 min 0 min 46 W/m 16,1 km/h (3 Bft) 95,74 %
24.05.2021 07:10 11,6 C 11,1 C 8,9 C 80 % 1009,9 hPa 0,0 l/m 0 min 0 min 53 W/m 22,5 km/h (4 Bft) 97,87 %
24.05.2021 07:12 11,6 C 11,1 C 8,9 C 80 % 1009,9 hPa 0,0 l/m 0 min 0 min 56 W/m 16,1 km/h (3 Bft) 97,87 %
24.05.2021 07:14 11,7 C 11,1 C 8,9 C 80 % 1009,9 hPa 0,0 l/m 0 min 0 min 58 W/m 19,3 km/h (3 Bft) 100,00 %
24.05.2021 07:16 11,7 C 11,1 C 8,9 C 80 % 1009,9 hPa 0,0 l/m 0 min 0 min 63 W/m 16,1 km/h (3 Bft) 100,00 %
24.05.2021 07:18 11,7 C 11,7 C 8,9 C 80 % 1009,9 hPa 0,0 l/m 0 min 0 min 83 W/m 16,1 km/h (3 Bft) 97,87 %
24.05.2021 07:20 11,8 C 11,7 C 8,9 C 80 % 1009,8 hPa 0,0 l/m 0 min 0 min 111 W/m 22,5 km/h (4 Bft) 97,87 %
24.05.2021 07:22 11,8 C 11,7 C 9,5 C 79 % 1009,9 hPa 0,0 l/m 0 min 0 min 122 W/m 19,3 km/h (3 Bft) 100,00 %
24.05.2021 07:24 11,9 C 12,2 C 9,5 C 79 % 1009,8 hPa 0,0 l/m 0 min 0 min 121 W/m 16,1 km/h (3 Bft) 97,87 %
24.05.2021 07:26 12,0 C 12,2 C 9,5 C 79 % 1009,8 hPa 0,0 l/m 2 min 0 min 128 W/m 19,3 km/h (3 Bft) 100,00 %
24.05.2021 07:28 12,1 C 12,2 C 9,5 C 79 % 1009,9 hPa 0,0 l/m 0 min 0 min 122 W/m 19,3 km/h (3 Bft) 100,00 %
24.05.2021 07:30 12,3 C 12,2 C 10,0 C 78 % 1009,8 hPa 0,0 l/m 0 min 0 min 100 W/m 29,0 km/h (5 Bft) 100,00 %
24.05.2021 07:32 12,3 C 12,2 C 10,0 C 78 % 1009,8 hPa 0,0 l/m 0 min 0 min 90 W/m 22,5 km/h (4 Bft) 100,00 %
24.05.2021 07:34 12,4 C 12,2 C 10,0 C 78 % 1009,8 hPa 0,0 l/m 0 min 0 min 90 W/m 22,5 km/h (4 Bft) 100,00 %
24.05.2021 07:36 12,5 C 12,2 C 10,0 C 77 % 1009,8 hPa 0,0 l/m 0 min 0 min 102 W/m 22,5 km/h (4 Bft) 100,00 %
24.05.2021 07:38 12,5 C 12,2 C 10,0 C 77 % 1009,8 hPa 0,0 l/m 0 min 0 min 131 W/m 19,3 km/h (3 Bft) 100,00 %
24.05.2021 07:40 12,6 C 12,8 C 10,0 C 77 % 1009,7 hPa 0,0 l/m 0 min 0 min 132 W/m 22,5 km/h (4 Bft) 100,00 %
24.05.2021 07:42 12,7 C 12,8 C 10,0 C 77 % 1009,7 hPa 0,0 l/m 0 min 0 min 132 W/m 22,5 km/h (4 Bft) 100,00 %
24.05.2021 07:44 12,8 C 12,8 C 10,6 C 76 % 1009,7 hPa 0,0 l/m 0 min 0 min 135 W/m 22,5 km/h (4 Bft) 95,74 %
24.05.2021 07:46 12,9 C 12,8 C 10,6 C 76 % 1009,7 hPa 0,0 l/m 0 min 0 min 122 W/m 19,3 km/h (3 Bft) 100,00 %
24.05.2021 07:48 13,0 C 13,3 C 10,6 C 76 % 1009,7 hPa 0,0 l/m 0 min 0 min 140 W/m 25,7 km/h (4 Bft) 100,00 %
24.05.2021 07:50 13,2 C 13,3 C 10,6 C 75 % 1009,6 hPa 0,0 l/m 0 min 0 min 156 W/m 19,3 km/h (3 Bft) 100,00 %
24.05.2021 07:52 13,3 C 13,3 C 10,6 C 75 % 1009,6 hPa 0,0 l/m 2 min 0 min 313 W/m 29,0 km/h (5 Bft) 100,00 %
24.05.2021 07:54 13,4 C 13,3 C 10,6 C 74 % 1009,6 hPa 0,0 l/m 2 min 0 min 358 W/m 19,3 km/h (3 Bft) 97,87 %
24.05.2021 07:56 13,5 C 13,9 C 11,1 C 74 % 1009,7 hPa 0,0 l/m 2 min 0 min 351 W/m 22,5 km/h (4 Bft) 100,00 %
24.05.2021 07:58 13,6 C 13,9 C 11,1 C 74 % 1009,5 hPa 0,0 l/m 2 min 0 min 393 W/m 25,7 km/h (4 Bft) 97,87 %
24.05.2021 08:00 13,7 C 13,9 C 11,1 C 74 % 1009,7 hPa 0,0 l/m 2 min 0 min 247 W/m 25,7 km/h (4 Bft) 97,87 %
24.05.2021 08:02 13,8 C 13,9 C 11,1 C 73 % 1009,5 hPa 0,0 l/m 2 min 0 min 197 W/m 29,0 km/h (5 Bft) 82,98 %
24.05.2021 08:04 13,9 C 13,9 C 11,1 C 73 % 1009,5 hPa 0,0 l/m 2 min 0 min 237 W/m 22,5 km/h (4 Bft) 91,30 %
24.05.2021 08:06 13,9 C 13,9 C 11,1 C 73 % 1009,5 hPa 0,0 l/m 2 min 0 min 376 W/m 29,0 km/h (5 Bft) 89,36 %
24.05.2021 08:08 14,0 C 14,4 C 11,1 C 72 % 1009,5 hPa 0,0 l/m 2 min 0 min 473 W/m 25,7 km/h (4 Bft) 95,74 %
24.05.2021 08:10 14,1 C 14,4 C 11,1 C 72 % 1009,5 hPa 0,0 l/m 2 min 0 min 238 W/m 25,7 km/h (4 Bft) 100,00 %
24.05.2021 08:12 14,2 C 14,4 C 11,1 C 72 % 1009,5 hPa 0,0 l/m 2 min 0 min 190 W/m 16,1 km/h (3 Bft) 97,87 %
24.05.2021 08:14 14,2 C 14,4 C 11,7 C 72 % 1009,5 hPa 0,0 l/m 0 min 0 min 170 W/m 25,7 km/h (4 Bft) 97,83 %
24.05.2021 08:16 14,3 C 15,0 C 11,7 C 71 % 1009,5 hPa 0,0 l/m 2 min 0 min 400 W/m 29,0 km/h (5 Bft) 91,49 %
24.05.2021 08:18 14,4 C 15,0 C 11,7 C 71 % 1009,4 hPa 0,0 l/m 2 min 0 min 264 W/m 16,1 km/h (3 Bft) 100,00 %
24.05.2021 08:20 14,5 C 15,0 C 11,7 C 71 % 1009,5 hPa 0,0 l/m 2 min 0 min 309 W/m 12,9 km/h (3 Bft) 82,98 %
24.05.2021 08:22 14,5 C 15,0 C 11,7 C 71 % 1009,5 hPa 0,0 l/m 0 min 0 min 189 W/m 25,7 km/h (4 Bft) 63,83 %
24.05.2021 08:24 14,5 C 14,4 C 11,1 C 70 % 1009,4 hPa 0,0 l/m 0 min 0 min 136 W/m 22,5 km/h (4 Bft) 65,96 %
24.05.2021 08:26 14,6 C 15,0 C 11,7 C 70 % 1009,4 hPa 0,0 l/m 2 min 0 min 260 W/m 19,3 km/h (3 Bft) 80,43 %
24.05.2021 08:28 14,6 C 15,6 C 12,3 C 70 % 1009,4 hPa 0,0 l/m 2 min 0 min 479 W/m 25,7 km/h (4 Bft) 82,98 %
24.05.2021 08:30 14,8 C 16,1 C 12,3 C 70 % 1009,4 hPa 0,0 l/m 2 min 0 min 491 W/m 19,3 km/h (3 Bft) 80,85 %
24.05.2021 08:32 14,9 C 15,6 C 12,3 C 70 % 1009,4 hPa 0,0 l/m 2 min 0 min 246 W/m 25,7 km/h (4 Bft) 95,74 %
24.05.2021 08:34 14,9 C 15,6 C 12,8 C 69 % 1009,3 hPa 0,0 l/m 2 min 0 min 280 W/m 29,0 km/h (5 Bft) 97,87 %
24.05.2021 08:36 14,9 C 15,6 C 12,3 C 69 % 1009,3 hPa 0,0 l/m 2 min 0 min 266 W/m 16,1 km/h (3 Bft) 97,87 %
24.05.2021 08:38 15,0 C 15,6 C 12,3 C 69 % 1009,2 hPa 0,0 l/m 2 min 0 min 221 W/m 19,3 km/h (3 Bft) 97,83 %
24.05.2021 08:40 15,0 C 15,6 C 12,3 C 69 % 1009,1 hPa 0,0 l/m 2 min 0 min 231 W/m 19,3 km/h (3 Bft) 97,87 %
24.05.2021 08:42 15,0 C 15,0 C 12,3 C 69 % 1009,3 hPa 0,0 l/m 2 min 0 min 276 W/m 25,7 km/h (4 Bft) 97,87 %
24.05.2021 08:44 15,0 C 15,0 C 12,3 C 69 % 1009,2 hPa 0,0 l/m 0 min 0 min 221 W/m 19,3 km/h (3 Bft) 95,74 %
24.05.2021 08:46 15,0 C 15,0 C 12,3 C 69 % 1009,2 hPa 0,0 l/m 2 min 0 min 233 W/m 22,5 km/h (4 Bft) 93,62 %
24.05.2021 08:48 15,0 C 15,6 C 12,3 C 69 % 1009,2 hPa 0,0 l/m 2 min 0 min 352 W/m 19,3 km/h (3 Bft) 97,87 %
24.05.2021 08:50 15,0 C 15,6 C 12,3 C 68 % 1009,1 hPa 0,0 l/m 2 min 0 min 373 W/m 29,0 km/h (5 Bft) 97,83 %
24.05.2021 08:52 15,1 C 16,1 C 12,8 C 69 % 1009,1 hPa 0,0 l/m 2 min 0 min 316 W/m 12,9 km/h (3 Bft) 97,87 %
24.05.2021 08:54 15,2 C 16,7 C 13,4 C 69 % 1009,2 hPa 0,0 l/m 2 min 0 min 409 W/m 19,3 km/h (3 Bft) 93,62 %
24.05.2021 08:56 15,3 C 17,8 C 13,4 C 68 % 1009,1 hPa 0,0 l/m 2 min 0 min 560 W/m 25,7 km/h (4 Bft) 100,00 %
24.05.2021 08:58 15,5 C 18,3 C 13,9 C 68 % 1009,2 hPa 0,0 l/m 2 min 0 min 603 W/m 22,5 km/h (4 Bft) 95,74 %
24.05.2021 09:00 15,6 C 18,9 C 14,5 C 67 % 1009,1 hPa 0,0 l/m 2 min 0 min 618 W/m 25,7 km/h (4 Bft) 93,62 %
24.05.2021 09:02 15,8 C 18,3 C 14,5 C 67 % 1009,1 hPa 0,0 l/m 2 min 0 min 617 W/m 25,7 km/h (4 Bft) 93,48 %
24.05.2021 09:04 15,9 C 17,2 C 14,5 C 67 % 1009,1 hPa 0,0 l/m 2 min 0 min 323 W/m 32,2 km/h (5 Bft) 93,62 %
24.05.2021 09:06 15,9 C 17,2 C 13,9 C 66 % 1009,1 hPa 0,0 l/m 2 min 0 min 370 W/m 29,0 km/h (5 Bft) 91,49 %
24.05.2021 09:08 16,0 C 18,3 C 14,5 C 66 % 1009,0 hPa 0,0 l/m 2 min 0 min 556 W/m 19,3 km/h (3 Bft) 91,49 %
24.05.2021 09:10 16,0 C 18,3 C 14,5 C 66 % 1009,0 hPa 0,0 l/m 2 min 0 min 578 W/m 22,5 km/h (4 Bft) 93,62 %
24.05.2021 09:12 16,1 C 18,3 C 15,0 C 66 % 1009,1 hPa 0,0 l/m 2 min 0 min 578 W/m 29,0 km/h (5 Bft) 91,49 %
24.05.2021 09:14 16,2 C 18,9 C 15,0 C 66 % 1009,0 hPa 0,0 l/m 2 min 0 min 544 W/m 29,0 km/h (5 Bft) 93,48 %
24.05.2021 09:16 16,3 C 18,3 C 15,0 C 66 % 1009,0 hPa 0,0 l/m 2 min 0 min 489 W/m 22,5 km/h (4 Bft) 93,62 %
24.05.2021 09:18 16,3 C 18,3 C 15,0 C 65 % 1009,0 hPa 0,0 l/m 2 min 0 min 453 W/m 25,7 km/h (4 Bft) 91,49 %
24.05.2021 09:20 16,3 C 17,8 C 15,0 C 66 % 1009,0 hPa 0,0 l/m 2 min 0 min 413 W/m 25,7 km/h (4 Bft) 93,62 %
24.05.2021 09:22 16,4 C 17,8 C 14,5 C 66 % 1008,9 hPa 0,0 l/m 2 min 0 min 386 W/m 19,3 km/h (3 Bft) 93,62 %
24.05.2021 09:24 16,4 C 17,2 C 14,5 C 65 % 1009,0 hPa 0,0 l/m 2 min 0 min 385 W/m 29,0 km/h (5 Bft) 91,49 %
24.05.2021 09:26 16,4 C 17,2 C 14,5 C 66 % 1008,9 hPa 0,0 l/m 2 min 0 min 367 W/m 29,0 km/h (5 Bft) 91,30 %
24.05.2021 09:28 16,4 C 16,7 C 13,9 C 66 % 1008,9 hPa 0,0 l/m 0 min 0 min 260 W/m 25,7 km/h (4 Bft) 93,62 %
24.05.2021 09:30 16,4 C 16,7 C 13,9 C 66 % 1008,9 hPa 0,0 l/m 0 min 0 min 218 W/m 22,5 km/h (4 Bft) 95,74 %
24.05.2021 09:32 16,3 C 16,1 C 13,4 C 66 % 1008,9 hPa 0,0 l/m 0 min 0 min 209 W/m 19,3 km/h (3 Bft) 93,62 %
24.05.2021 09:34 16,3 C 16,1 C 13,4 C 66 % 1008,8 hPa 0,0 l/m 0 min 0 min 215 W/m 16,1 km/h (3 Bft) 93,62 %
24.05.2021 09:36 16,3 C 16,1 C 13,4 C 66 % 1008,8 hPa 0,0 l/m 0 min 0 min 228 W/m 22,5 km/h (4 Bft) 97,87 %
24.05.2021 09:38 16,3 C 16,1 C 13,4 C 66 % 1008,8 hPa 0,0 l/m 0 min 0 min 230 W/m 19,3 km/h (3 Bft) 95,65 %
24.05.2021 09:40 16,1 C 15,6 C 13,4 C 66 % 1008,8 hPa 0,0 l/m 0 min 0 min 211 W/m 19,3 km/h (3 Bft) 93,62 %
24.05.2021 09:42 16,1 C 15,6 C 13,4 C 66 % 1008,8 hPa 0,0 l/m 0 min 0 min 181 W/m 19,3 km/h (3 Bft) 95,74 %
24.05.2021 09:44 16,1 C 15,6 C 13,4 C 67 % 1008,8 hPa 0,0 l/m 0 min 0 min 161 W/m 16,1 km/h (3 Bft) 97,87 %
24.05.2021 09:46 16,1 C 15,6 C 12,8 C 67 % 1008,8 hPa 0,0 l/m 0 min 0 min 133 W/m 16,1 km/h (3 Bft) 95,74 %
24.05.2021 09:48 16,0 C 15,6 C 12,8 C 67 % 1008,7 hPa 0,0 l/m 0 min 0 min 133 W/m 16,1 km/h (3 Bft) 95,74 %
24.05.2021 09:50 16,0 C 15,6 C 12,8 C 67 % 1008,7 hPa 0,0 l/m 0 min 0 min 131 W/m 29,0 km/h (5 Bft) 97,83 %
24.05.2021 09:52 16,0 C 15,6 C 12,8 C 67 % 1008,7 hPa 0,0 l/m 0 min 0 min 129 W/m 22,5 km/h (4 Bft) 97,87 %
24.05.2021 09:54 15,9 C 15,6 C 12,8 C 67 % 1008,8 hPa 0,0 l/m 0 min 0 min 112 W/m 16,1 km/h (3 Bft) 100,00 %
24.05.2021 09:56 15,9 C 15,6 C 12,8 C 68 % 1008,8 hPa 0,0 l/m 0 min 0 min 126 W/m 12,9 km/h (3 Bft) 100,00 %
24.05.2021 09:58 15,9 C 15,6 C 12,8 C 68 % 1008,7 hPa 0,0 l/m 0 min 0 min 152 W/m 16,1 km/h (3 Bft) 97,87 %
24.05.2021 10:00 15,8 C 15,0 C 12,8 C 67 % 1008,8 hPa 0,0 l/m 0 min 0 min 128 W/m 22,5 km/h (4 Bft) 100,00 %
24.05.2021 10:02 15,8 C 15,0 C 12,3 C 67 % 1008,8 hPa 0,0 l/m 0 min 0 min 126 W/m 25,7 km/h (4 Bft) 97,83 %
24.05.2021 10:04 15,8 C 15,0 C 12,8 C 68 % 1008,8 hPa 0,0 l/m 0 min 0 min 143 W/m 16,1 km/h (3 Bft) 100,00 %
24.05.2021 10:06 15,7 C 15,0 C 12,8 C 68 % 1008,8 hPa 0,0 l/m 0 min 0 min 178 W/m 25,7 km/h (4 Bft) 100,00 %
24.05.2021 10:08 15,7 C 15,6 C 12,8 C 68 % 1008,8 hPa 0,0 l/m 0 min 0 min 185 W/m 19,3 km/h (3 Bft) 100,00 %
24.05.2021 10:10 15,7 C 15,6 C 12,8 C 68 % 1008,8 hPa 0,0 l/m 0 min 0 min 209 W/m 16,1 km/h (3 Bft) 100,00 %
24.05.2021 10:12 15,7 C 15,6 C 12,8 C 68 % 1008,7 hPa 0,0 l/m 0 min 0 min 240 W/m 22,5 km/h (4 Bft) 95,74 %
24.05.2021 10:14 15,7 C 15,6 C 12,8 C 68 % 1008,7 hPa 0,0 l/m 0 min 0 min 236 W/m 16,1 km/h (3 Bft) 100,00 %
24.05.2021 10:16 15,8 C 15,6 C 13,4 C 68 % 1008,7 hPa 0,0 l/m 0 min 0 min 235 W/m 19,3 km/h (3 Bft) 100,00 %
24.05.2021 10:18 15,8 C 15,6 C 13,4 C 68 % 1008,7 hPa 0,0 l/m 0 min 0 min 216 W/m 16,1 km/h (3 Bft) 100,00 %
24.05.2021 10:20 15,9 C 16,1 C 13,4 C 69 % 1008,6 hPa 0,0 l/m 0 min 0 min 230 W/m 12,9 km/h (3 Bft) 100,00 %
24.05.2021 10:22 15,9 C 16,1 C 13,4 C 68 % 1008,7 hPa 0,0 l/m 0 min 0 min 239 W/m 19,3 km/h (3 Bft) 100,00 %
24.05.2021 10:24 15,9 C 16,1 C 13,4 C 69 % 1008,7 hPa 0,0 l/m 0 min 0 min 206 W/m 12,9 km/h (3 Bft) 100,00 %
24.05.2021 10:26 16,0 C 16,1 C 13,4 C 69 % 1008,8 hPa 0,0 l/m 0 min 0 min 234 W/m 29,0 km/h (5 Bft) 100,00 %
24.05.2021 10:28 16,0 C 16,1 C 13,4 C 68 % 1008,7 hPa 0,0 l/m 0 min 0 min 239 W/m 19,3 km/h (3 Bft) 100,00 %
24.05.2021 10:30 16,0 C 16,1 C 13,4 C 69 % 1008,7 hPa 0,0 l/m 0 min 0 min 240 W/m 9,7 km/h (2 Bft) 100,00 %
24.05.2021 10:32 16,1 C 16,1 C 13,4 C 69 % 1008,7 hPa 0,0 l/m 0 min 0 min 254 W/m 19,3 km/h (3 Bft) 100,00 %
24.05.2021 10:34 16,1 C 16,1 C 13,4 C 69 % 1008,6 hPa 0,0 l/m 0 min 0 min 261 W/m 16,1 km/h (3 Bft) 100,00 %
24.05.2021 10:36 16,1 C 16,1 C 13,4 C 69 % 1008,7 hPa 0,0 l/m 0 min 0 min 260 W/m 19,3 km/h (3 Bft) 100,00 %
24.05.2021 10:38 16,2 C 16,1 C 13,4 C 69 % 1008,7 hPa 0,0 l/m 0 min 0 min 255 W/m 22,5 km/h (4 Bft) 100,00 %
24.05.2021 10:40 16,3 C 16,1 C 13,4 C 68 % 1008,7 hPa 0,0 l/m 0 min 0 min 277 W/m 16,1 km/h (3 Bft) 100,00 %
24.05.2021 10:42 16,3 C 16,7 C 13,4 C 68 % 1008,6 hPa 0,0 l/m 0 min 0 min 282 W/m 9,7 km/h (2 Bft) 97,87 %
24.05.2021 10:44 16,3 C 16,7 C 13,9 C 69 % 1008,7 hPa 0,0 l/m 0 min 0 min 256 W/m 16,1 km/h (3 Bft) 100,00 %
24.05.2021 10:46 16,4 C 16,7 C 13,9 C 68 % 1008,6 hPa 0,0 l/m 0 min 0 min 252 W/m 25,7 km/h (4 Bft) 100,00 %
24.05.2021 10:48 16,4 C 16,7 C 13,9 C 68 % 1008,6 hPa 0,0 l/m 0 min 0 min 253 W/m 16,1 km/h (3 Bft) 97,83 %
24.05.2021 10:50 16,4 C 16,7 C 13,9 C 68 % 1008,6 hPa 0,0 l/m 0 min 0 min 249 W/m 22,5 km/h (4 Bft) 100,00 %
24.05.2021 10:52 16,5 C 16,7 C 13,9 C 68 % 1008,6 hPa 0,0 l/m 0 min 0 min 240 W/m 12,9 km/h (3 Bft) 97,87 %
24.05.2021 10:54 16,5 C 16,7 C 13,9 C 68 % 1008,6 hPa 0,0 l/m 0 min 0 min 226 W/m 12,9 km/h (3 Bft) 100,00 %
24.05.2021 10:56 16,5 C 16,7 C 13,9 C 68 % 1008,6 hPa 0,0 l/m 0 min 0 min 212 W/m 16,1 km/h (3 Bft) 100,00 %
24.05.2021 10:58 16,5 C 16,7 C 13,9 C 67 % 1008,6 hPa 0,0 l/m 0 min 0 min 218 W/m 22,5 km/h (4 Bft) 100,00 %
24.05.2021 11:00 16,6 C 16,7 C 13,9 C 68 % 1008,6 hPa 0,0 l/m 0 min 0 min 227 W/m 12,9 km/h (3 Bft) 97,83 %
24.05.2021 11:02 16,6 C 16,7 C 13,9 C 68 % 1008,6 hPa 0,0 l/m 0 min 0 min 225 W/m 16,1 km/h (3 Bft) 100,00 %
24.05.2021 11:04 16,6 C 16,7 C 13,9 C 67 % 1008,5 hPa 0,0 l/m 0 min 0 min 227 W/m 29,0 km/h (5 Bft) 100,00 %
24.05.2021 11:06 16,6 C 16,7 C 13,9 C 66 % 1008,6 hPa 0,0 l/m 0 min 0 min 222 W/m 32,2 km/h (5 Bft) 100,00 %
24.05.2021 11:08 16,5 C 16,1 C 13,9 C 65 % 1008,6 hPa 0,0 l/m 0 min 0 min 216 W/m 19,3 km/h (3 Bft) 100,00 %
24.05.2021 11:10 16,5 C 16,1 C 13,9 C 66 % 1008,5 hPa 0,0 l/m 0 min 0 min 206 W/m 16,1 km/h (3 Bft) 100,00 %
24.05.2021 11:12 16,5 C 16,1 C 13,4 C 65 % 1008,5 hPa 0,0 l/m 0 min 0 min 195 W/m 25,7 km/h (4 Bft) 100,00 %
24.05.2021 11:14 16,5 C 16,1 C 13,4 C 66 % 1008,5 hPa 0,0 l/m 0 min 0 min 192 W/m 16,1 km/h (3 Bft) 100,00 %
24.05.2021 11:16 16,5 C 16,1 C 13,4 C 66 % 1008,4 hPa 0,0 l/m 0 min 0 min 196 W/m 22,5 km/h (4 Bft) 100,00 %
24.05.2021 11:18 16,5 C 16,1 C 13,4 C 65 % 1008,4 hPa 0,0 l/m 0 min 0 min 203 W/m 29,0 km/h (5 Bft) 100,00 %
24.05.2021 11:20 16,5 C 16,1 C 13,4 C 65 % 1008,4 hPa 0,0 l/m 0 min 0 min 197 W/m 19,3 km/h (3 Bft) 97,87 %
24.05.2021 11:22 16,4 C 16,1 C 13,4 C 64 % 1008,5 hPa 0,0 l/m 0 min 0 min 182 W/m 29,0 km/h (5 Bft) 97,87 %
24.05.2021 11:24 16,4 C 16,1 C 13,4 C 65 % 1008,4 hPa 0,0 l/m 0 min 0 min 170 W/m 22,5 km/h (4 Bft) 100,00 %
24.05.2021 11:26 16,4 C 16,1 C 13,4 C 65 % 1008,4 hPa 0,0 l/m 0 min 0 min 160 W/m 19,3 km/h (3 Bft) 100,00 %
24.05.2021 11:28 16,4 C 16,1 C 13,4 C 65 % 1008,4 hPa 0,0 l/m 0 min 0 min 161 W/m 22,5 km/h (4 Bft) 100,00 %
24.05.2021 11:30 16,4 C 16,1 C 13,4 C 65 % 1008,4 hPa 0,0 l/m 0 min 0 min 154 W/m 19,3 km/h (3 Bft) 97,87 %
24.05.2021 11:32 16,4 C 16,1 C 13,4 C 65 % 1008,4 hPa 0,0 l/m 0 min 0 min 157 W/m 19,3 km/h (3 Bft) 95,74 %
24.05.2021 11:34 16,3 C 16,1 C 12,8 C 64 % 1008,4 hPa 0,0 l/m 0 min 0 min 163 W/m 25,7 km/h (4 Bft) 97,87 %
24.05.2021 11:36 16,3 C 15,6 C 12,8 C 64 % 1008,3 hPa 0,0 l/m 0 min 0 min 169 W/m 25,7 km/h (4 Bft) 97,83 %
24.05.2021 11:38 16,3 C 15,6 C 12,8 C 64 % 1008,3 hPa 0,0 l/m 0 min 0 min 169 W/m 22,5 km/h (4 Bft) 96,30 %
24.05.2021 11:40 16,3 C 15,6 C 12,8 C 64 % 1008,3 hPa 0,0 l/m 0 min 0 min 154 W/m 19,3 km/h (3 Bft) 95,74 %
24.05.2021 11:42 16,2 C 15,6 C 12,8 C 65 % 1008,3 hPa 0,0 l/m 0 min 0 min 142 W/m 19,3 km/h (3 Bft) 95,65 %
24.05.2021 11:44 16,2 C 15,6 C 12,8 C 64 % 1008,4 hPa 0,0 l/m 0 min 0 min 136 W/m 35,4 km/h (5 Bft) 95,74 %
24.05.2021 11:46 16,1 C 15,6 C 12,8 C 63 % 1008,3 hPa 0,0 l/m 0 min 0 min 134 W/m 35,4 km/h (5 Bft) 95,74 %
24.05.2021 11:48 16,1 C 15,6 C 12,8 C 63 % 1008,3 hPa 0,0 l/m 0 min 0 min 132 W/m 25,7 km/h (4 Bft) 95,74 %
24.05.2021 11:50 16,1 C 15,6 C 12,8 C 63 % 1008,3 hPa 0,0 l/m 0 min 0 min 137 W/m 25,7 km/h (4 Bft) 95,74 %
24.05.2021 11:52 16,0 C 15,6 C 12,8 C 64 % 1008,3 hPa 0,0 l/m 0 min 0 min 143 W/m 16,1 km/h (3 Bft) 97,87 %
24.05.2021 11:54 16,0 C 15,6 C 12,8 C 63 % 1008,3 hPa 0,0 l/m 0 min 0 min 138 W/m 35,4 km/h (5 Bft) 97,83 %
24.05.2021 11:56 16,0 C 15,6 C 12,8 C 64 % 1008,3 hPa 0,0 l/m 0 min 0 min 122 W/m 25,7 km/h (4 Bft) 97,87 %
24.05.2021 11:58 16,0 C 15,6 C 12,8 C 63 % 1008,3 hPa 0,0 l/m 0 min 0 min 106 W/m 25,7 km/h (4 Bft) 95,74 %
24.05.2021 12:00 16,0 C 15,6 C 12,8 C 64 % 1008,3 hPa 0,0 l/m 0 min 0 min 91 W/m 16,1 km/h (3 Bft) 93,62 %
24.05.2021 12:02 15,9 C 15,0 C 12,8 C 64 % 1008,3 hPa 0,0 l/m 0 min 0 min 74 W/m 32,2 km/h (5 Bft) 93,62 %
24.05.2021 12:04 15,9 C 15,0 C 12,8 C 64 % 1008,2 hPa 0,0 l/m 0 min 0 min 65 W/m 22,5 km/h (4 Bft) 95,74 %
24.05.2021 12:08 15,8 C 15,0 C 12,3 C 64 % 1008,3 hPa 0,0 l/m 0 min 0 min 58 W/m 38,6 km/h (5 Bft) 94,62 %
24.05.2021 12:10 15,8 C 15,0 C 12,3 C 64 % 1008,2 hPa 0,0 l/m 0 min 0 min 70 W/m 25,7 km/h (4 Bft) 95,74 %
24.05.2021 12:12 15,8 C 15,0 C 12,3 C 65 % 1008,2 hPa 0,0 l/m 0 min 0 min 83 W/m 16,1 km/h (3 Bft) 93,62 %
24.05.2021 12:14 15,8 C 15,0 C 12,3 C 65 % 1008,2 hPa 0,0 l/m 0 min 0 min 94 W/m 19,3 km/h (3 Bft) 93,62 %
24.05.2021 12:16 15,7 C 15,0 C 12,3 C 66 % 1008,2 hPa 0,0 l/m 0 min 0 min 129 W/m 19,3 km/h (3 Bft) 93,62 %
24.05.2021 12:18 15,7 C 15,6 C 12,3 C 66 % 1008,2 hPa 0,0 l/m 0 min 0 min 196 W/m 19,3 km/h (3 Bft) 93,48 %
24.05.2021 12:20 15,7 C 15,6 C 12,8 C 67 % 1008,1 hPa 0,0 l/m 0 min 0 min 265 W/m 29,0 km/h (5 Bft) 93,62 %
24.05.2021 12:22 15,6 C 15,6 C 12,8 C 67 % 1008,1 hPa 0,0 l/m 0 min 0 min 285 W/m 25,7 km/h (4 Bft) 91,49 %
24.05.2021 12:24 15,6 C 15,6 C 12,8 C 68 % 1008,1 hPa 0,0 l/m 0 min 0 min 269 W/m 22,5 km/h (4 Bft) 95,74 %
24.05.2021 12:26 15,7 C 15,6 C 12,8 C 68 % 1008,0 hPa 0,0 l/m 0 min 2 min 289 W/m 29,0 km/h (5 Bft) 95,74 %
24.05.2021 12:28 15,7 C 15,6 C 12,8 C 68 % 1008,1 hPa 0,0 l/m 0 min 0 min 289 W/m 16,1 km/h (3 Bft) 95,74 %
24.05.2021 12:30 15,6 C 15,6 C 12,8 C 68 % 1008,0 hPa 0,0 l/m 0 min 0 min 279 W/m 16,1 km/h (3 Bft) 91,30 %
24.05.2021 12:32 15,6 C 15,6 C 12,8 C 69 % 1008,0 hPa 0,0 l/m 0 min 0 min 255 W/m 19,3 km/h (3 Bft) 91,49 %
24.05.2021 12:34 15,6 C 15,6 C 12,8 C 70 % 1008,0 hPa 0,0 l/m 0 min 2 min 234 W/m 19,3 km/h (3 Bft) 87,23 %
24.05.2021 12:36 15,6 C 15,6 C 12,8 C 71 % 1008,0 hPa 0,0 l/m 0 min 0 min 232 W/m 22,5 km/h (4 Bft) 93,62 %
24.05.2021 12:38 15,6 C 15,6 C 12,3 C 71 % 1008,0 hPa 0,0 l/m 0 min 2 min 217 W/m 16,1 km/h (3 Bft) 93,62 %
24.05.2021 12:40 15,6 C 15,6 C 12,3 C 72 % 1007,9 hPa 0,0 l/m 0 min 2 min 216 W/m 6,4 km/h (2 Bft) 95,74 %
24.05.2021 12:42 15,6 C 15,6 C 11,7 C 72 % 1008,0 hPa 0,0 l/m 0 min 2 min 222 W/m 16,1 km/h (3 Bft) 95,65 %
24.05.2021 12:44 15,6 C 15,6 C 11,7 C 72 % 1008,0 hPa 0,0 l/m 0 min 2 min 237 W/m 12,9 km/h (3 Bft) 95,74 %
24.05.2021 12:46 15,6 C 15,6 C 11,1 C 73 % 1008,0 hPa 0,0 l/m 0 min 2 min 213 W/m 12,9 km/h (3 Bft) 95,74 %
24.05.2021 12:48 15,6 C 15,6 C 11,1 C 74 % 1008,0 hPa 0,0 l/m 0 min 2 min 204 W/m 16,1 km/h (3 Bft) 95,74 %
24.05.2021 12:50 15,6 C 15,6 C 11,1 C 74 % 1008,0 hPa 0,0 l/m 0 min 2 min 181 W/m 9,7 km/h (2 Bft) 95,74 %
24.05.2021 12:52 15,6 C 15,0 C 11,1 C 74 % 1008,0 hPa 0,0 l/m 0 min 2 min 180 W/m 9,7 km/h (2 Bft) 95,74 %
24.05.2021 12:54 15,5 C 15,0 C 11,1 C 74 % 1008,0 hPa 0,0 l/m 0 min 2 min 175 W/m 22,5 km/h (4 Bft) 97,83 %
24.05.2021 12:56 15,5 C 15,0 C 11,1 C 73 % 1008,0 hPa 0,0 l/m 0 min 2 min 177 W/m 16,1 km/h (3 Bft) 97,87 %
24.05.2021 12:58 15,4 C 15,0 C 11,1 C 74 % 1008,0 hPa 0,0 l/m 0 min 2 min 186 W/m 12,9 km/h (3 Bft) 97,87 %
24.05.2021 13:00 15,4 C 15,0 C 11,1 C 74 % 1008,0 hPa 0,0 l/m 0 min 2 min 177 W/m 16,1 km/h (3 Bft) 95,74 %
24.05.2021 13:02 15,4 C 15,0 C 10,6 C 75 % 1008,1 hPa 0,0 l/m 0 min 2 min 156 W/m 6,4 km/h (2 Bft) 97,67 %
24.05.2021 13:04 15,3 C 14,4 C 10,6 C 76 % 1008,1 hPa 0,0 l/m 0 min 2 min 136 W/m 6,4 km/h (2 Bft) 94,00 %
24.05.2021 13:06 15,2 C 14,4 C 10,6 C 77 % 1008,1 hPa 0,0 l/m 0 min 2 min 111 W/m 6,4 km/h (2 Bft) 97,87 %
24.05.2021 13:08 15,0 C 14,4 C 10,0 C 78 % 1008,2 hPa 0,0 l/m 0 min 2 min 116 W/m 6,4 km/h (2 Bft) 97,87 %
24.05.2021 13:10 15,0 C 13,9 C 10,0 C 78 % 1008,2 hPa 0,0 l/m 0 min 2 min 126 W/m 6,4 km/h (2 Bft) 97,83 %
24.05.2021 13:12 14,9 C 13,9 C 10,0 C 79 % 1008,2 hPa 0,0 l/m 0 min 2 min 131 W/m 9,7 km/h (2 Bft) 100,00 %
24.05.2021 13:14 14,8 C 13,9 C 10,0 C 79 % 1008,2 hPa 0,2 l/m 0 min 2 min 152 W/m 6,4 km/h (2 Bft) 97,87 %
24.05.2021 13:16 14,7 C 13,9 C 10,0 C 80 % 1008,2 hPa 0,0 l/m 0 min 2 min 160 W/m 6,4 km/h (2 Bft) 97,87 %
24.05.2021 13:18 14,6 C 13,9 C 10,0 C 81 % 1008,3 hPa 0,0 l/m 0 min 2 min 161 W/m 6,4 km/h (2 Bft) 100,00 %
24.05.2021 13:20 14,6 C 13,9 C 10,6 C 81 % 1008,3 hPa 0,0 l/m 0 min 2 min 172 W/m 3,2 km/h (1 Bft) 100,00 %
24.05.2021 13:22 14,6 C 13,9 C 10,6 C 82 % 1008,3 hPa 0,0 l/m 0 min 2 min 178 W/m 16,1 km/h (3 Bft) 100,00 %
24.05.2021 13:24 14,5 C 13,9 C 10,6 C 82 % 1008,4 hPa 0,0 l/m 0 min 2 min 199 W/m 16,1 km/h (3 Bft) 97,87 %
24.05.2021 13:26 14,4 C 13,9 C 10,0 C 83 % 1008,4 hPa 0,0 l/m 0 min 2 min 210 W/m 12,9 km/h (3 Bft) 97,87 %
24.05.2021 13:28 14,3 C 13,9 C 10,0 C 83 % 1008,4 hPa 0,0 l/m 0 min 2 min 176 W/m 12,9 km/h (3 Bft) 100,00 %
24.05.2021 13:30 14,2 C 13,9 C 10,0 C 83 % 1008,4 hPa 0,0 l/m 0 min 2 min 163 W/m 6,4 km/h (2 Bft) 100,00 %
24.05.2021 13:32 14,2 C 13,3 C 10,0 C 83 % 1008,4 hPa 0,0 l/m 0 min 2 min 168 W/m 9,7 km/h (2 Bft) 100,00 %
24.05.2021 13:34 14,2 C 13,3 C 10,0 C 83 % 1008,4 hPa 0,0 l/m 0 min 2 min 184 W/m 12,9 km/h (3 Bft) 100,00 %
24.05.2021 13:36 14,1 C 13,3 C 10,0 C 84 % 1008,4 hPa 0,0 l/m 0 min 2 min 190 W/m 6,4 km/h (2 Bft) 97,87 %
24.05.2021 13:38 14,0 C 13,3 C 9,5 C 84 % 1008,4 hPa 0,0 l/m 0 min 2 min 201 W/m 16,1 km/h (3 Bft) 100,00 %
24.05.2021 13:40 13,9 C 13,3 C 9,5 C 85 % 1008,4 hPa 0,0 l/m 0 min 2 min 210 W/m 12,9 km/h (3 Bft) 100,00 %
24.05.2021 13:42 13,9 C 13,3 C 9,5 C 85 % 1008,4 hPa 0,0 l/m 0 min 2 min 207 W/m 22,5 km/h (4 Bft) 97,87 %
24.05.2021 13:44 13,8 C 13,3 C 9,5 C 85 % 1008,4 hPa 0,2 l/m 0 min 2 min 193 W/m 12,9 km/h (3 Bft) 100,00 %
24.05.2021 13:46 13,8 C 13,3 C 9,5 C 85 % 1008,4 hPa 0,0 l/m 0 min 2 min 196 W/m 12,9 km/h (3 Bft) 100,00 %
24.05.2021 13:48 13,7 C 13,3 C 9,5 C 85 % 1008,4 hPa 0,0 l/m 0 min 2 min 208 W/m 22,5 km/h (4 Bft) 100,00 %
24.05.2021 13:50 13,7 C 13,3 C 9,5 C 85 % 1008,4 hPa 0,0 l/m 0 min 2 min 190 W/m 16,1 km/h (3 Bft) 100,00 %
24.05.2021 13:52 13,6 C 13,3 C 9,5 C 86 % 1008,5 hPa 0,0 l/m 0 min 2 min 160 W/m 25,7 km/h (4 Bft) 100,00 %
24.05.2021 13:54 13,6 C 13,3 C 9,5 C 86 % 1008,5 hPa 0,0 l/m 0 min 2 min 142 W/m 16,1 km/h (3 Bft) 100,00 %
24.05.2021 13:56 13,5 C 13,3 C 9,5 C 86 % 1008,5 hPa 0,0 l/m 0 min 2 min 154 W/m 19,3 km/h (3 Bft) 100,00 %
24.05.2021 13:58 13,5 C 12,8 C 9,5 C 86 % 1008,5 hPa 0,0 l/m 0 min 2 min 163 W/m 19,3 km/h (3 Bft) 100,00 %
24.05.2021 14:00 13,5 C 12,8 C 9,5 C 86 % 1008,5 hPa 0,0 l/m 0 min 2 min 154 W/m 19,3 km/h (3 Bft) 100,00 %
24.05.2021 14:02 13,5 C 12,8 C 9,5 C 87 % 1008,5 hPa 0,0 l/m 0 min 2 min 130 W/m 29,0 km/h (5 Bft) 100,00 %
24.05.2021 14:04 13,4 C 12,8 C 9,5 C 87 % 1008,4 hPa 0,0 l/m 0 min 2 min 116 W/m 29,0 km/h (5 Bft) 97,87 %
24.05.2021 14:06 13,4 C 12,8 C 9,5 C 87 % 1008,4 hPa 0,0 l/m 0 min 2 min 113 W/m 22,5 km/h (4 Bft) 100,00 %
24.05.2021 14:08 13,4 C 12,8 C 9,5 C 87 % 1008,5 hPa 0,0 l/m 0 min 2 min 158 W/m 12,9 km/h (3 Bft) 100,00 %
24.05.2021 14:10 13,4 C 13,3 C 9,5 C 88 % 1008,4 hPa 0,0 l/m 0 min 2 min 210 W/m 19,3 km/h (3 Bft) 97,87 %
24.05.2021 14:12 13,4 C 13,3 C 9,5 C 88 % 1008,5 hPa 0,0 l/m 0 min 2 min 203 W/m 32,2 km/h (5 Bft) 100,00 %
24.05.2021 14:14 13,4 C 13,3 C 9,5 C 88 % 1008,4 hPa 0,2 l/m 0 min 2 min 199 W/m 12,9 km/h (3 Bft) 100,00 %
24.05.2021 14:16 13,4 C 13,3 C 9,5 C 88 % 1008,4 hPa 0,0 l/m 0 min 2 min 208 W/m 16,1 km/h (3 Bft) 100,00 %
24.05.2021 14:18 13,4 C 13,3 C 9,5 C 88 % 1008,4 hPa 0,0 l/m 0 min 2 min 215 W/m 19,3 km/h (3 Bft) 100,00 %
24.05.2021 14:20 13,4 C 13,3 C 9,5 C 88 % 1008,3 hPa 0,0 l/m 0 min 2 min 207 W/m 22,5 km/h (4 Bft) 97,83 %
24.05.2021 14:22 13,4 C 13,3 C 9,5 C 87 % 1008,3 hPa 0,0 l/m 0 min 2 min 213 W/m 22,5 km/h (4 Bft) 97,87 %
24.05.2021 14:24 13,4 C 13,3 C 9,5 C 87 % 1008,3 hPa 0,0 l/m 0 min 2 min 219 W/m 29,0 km/h (5 Bft) 95,74 %
24.05.2021 14:26 13,4 C 13,3 C 9,5 C 87 % 1008,2 hPa 0,0 l/m 0 min 2 min 213 W/m 29,0 km/h (5 Bft) 97,87 %
24.05.2021 14:28 13,4 C 13,3 C 9,5 C 86 % 1008,2 hPa 0,0 l/m 0 min 2 min 202 W/m 29,0 km/h (5 Bft) 97,87 %
24.05.2021 14:30 13,4 C 13,3 C 9,5 C 86 % 1008,1 hPa 0,0 l/m 0 min 2 min 203 W/m 16,1 km/h (3 Bft) 97,87 %
24.05.2021 14:32 13,4 C 13,3 C 9,5 C 86 % 1008,1 hPa 0,0 l/m 0 min 2 min 221 W/m 25,7 km/h (4 Bft) 97,83 %
24.05.2021 14:34 13,4 C 13,3 C 9,5 C 85 % 1008,1 hPa 0,0 l/m 0 min 2 min 237 W/m 38,6 km/h (5 Bft) 97,87 %
24.05.2021 14:36 13,4 C 13,3 C 9,5 C 85 % 1008,2 hPa 0,0 l/m 0 min 2 min 244 W/m 22,5 km/h (4 Bft) 93,62 %
24.05.2021 14:38 13,4 C 13,3 C 9,5 C 85 % 1008,3 hPa 0,0 l/m 0 min 2 min 259 W/m 16,1 km/h (3 Bft) 97,87 %
24.05.2021 14:40 13,4 C 13,9 C 9,5 C 86 % 1008,3 hPa 0,0 l/m 0 min 0 min 278 W/m 12,9 km/h (3 Bft) 95,74 %
24.05.2021 14:42 13,5 C 13,9 C 9,5 C 86 % 1008,3 hPa 0,0 l/m 0 min 0 min 307 W/m 12,9 km/h (3 Bft) 97,87 %
24.05.2021 14:44 13,5 C 13,9 C 10,0 C 86 % 1008,4 hPa 0,0 l/m 0 min 0 min 305 W/m 29,0 km/h (5 Bft) 95,65 %
24.05.2021 14:46 13,6 C 13,9 C 10,0 C 86 % 1008,4 hPa 0,0 l/m 0 min 0 min 259 W/m 25,7 km/h (4 Bft) 97,87 %
24.05.2021 14:48 13,6 C 13,9 C 10,0 C 86 % 1008,4 hPa 0,0 l/m 0 min 0 min 255 W/m 12,9 km/h (3 Bft) 97,87 %
24.05.2021 14:50 13,7 C 13,9 C 10,0 C 86 % 1008,4 hPa 0,0 l/m 0 min 0 min 260 W/m 19,3 km/h (3 Bft) 97,87 %
24.05.2021 14:52 13,8 C 13,9 C 10,0 C 86 % 1008,4 hPa 0,0 l/m 0 min 0 min 259 W/m 16,1 km/h (3 Bft) 93,62 %
24.05.2021 14:54 13,8 C 13,9 C 10,6 C 85 % 1008,3 hPa 0,0 l/m 0 min 0 min 258 W/m 22,5 km/h (4 Bft) 95,74 %
24.05.2021 14:56 13,8 C 13,9 C 10,6 C 85 % 1008,3 hPa 0,0 l/m 0 min 0 min 254 W/m 22,5 km/h (4 Bft) 95,65 %
24.05.2021 14:58 13,9 C 14,4 C 10,6 C 85 % 1008,3 hPa 0,0 l/m 0 min 0 min 224 W/m 25,7 km/h (4 Bft) 95,74 %
24.05.2021 15:00 13,9 C 14,4 C 10,6 C 85 % 1008,2 hPa 0,0 l/m 0 min 0 min 258 W/m 12,9 km/h (3 Bft) 95,74 %
24.05.2021 15:02 14,0 C 14,4 C 10,6 C 85 % 1008,2 hPa 0,0 l/m 0 min 0 min 333 W/m 19,3 km/h (3 Bft) 97,87 %
24.05.2021 15:04 14,1 C 14,4 C 10,6 C 85 % 1008,2 hPa 0,0 l/m 0 min 0 min 387 W/m 25,7 km/h (4 Bft) 95,74 %
24.05.2021 15:06 14,2 C 15,0 C 11,1 C 84 % 1008,2 hPa 0,0 l/m 0 min 0 min 368 W/m 16,1 km/h (3 Bft) 95,74 %
24.05.2021 15:08 14,2 C 15,0 C 11,1 C 84 % 1008,2 hPa 0,0 l/m 0 min 0 min 328 W/m 19,3 km/h (3 Bft) 93,48 %
24.05.2021 15:10 14,2 C 14,4 C 11,1 C 84 % 1008,2 hPa 0,0 l/m 0 min 0 min 297 W/m 25,7 km/h (4 Bft) 95,74 %
24.05.2021 15:12 14,3 C 14,4 C 11,1 C 83 % 1008,3 hPa 0,0 l/m 0 min 0 min 289 W/m 38,6 km/h (5 Bft) 95,74 %
24.05.2021 15:14 14,3 C 14,4 C 11,1 C 82 % 1008,3 hPa 0,0 l/m 0 min 0 min 242 W/m 25,7 km/h (4 Bft) 97,87 %
24.05.2021 15:16 14,4 C 14,4 C 11,7 C 83 % 1008,3 hPa 0,0 l/m 0 min 0 min 209 W/m 19,3 km/h (3 Bft) 95,74 %
24.05.2021 15:18 14,4 C 14,4 C 11,1 C 83 % 1008,3 hPa 0,0 l/m 0 min 2 min 180 W/m 22,5 km/h (4 Bft) 97,87 %
24.05.2021 15:20 14,4 C 14,4 C 11,1 C 82 % 1008,3 hPa 0,0 l/m 0 min 2 min 171 W/m 22,5 km/h (4 Bft) 97,83 %
24.05.2021 15:22 14,4 C 13,9 C 10,6 C 82 % 1008,3 hPa 0,0 l/m 0 min 2 min 139 W/m 25,7 km/h (4 Bft) 95,74 %
24.05.2021 15:24 14,2 C 13,9 C 10,0 C 81 % 1008,4 hPa 0,0 l/m 0 min 2 min 122 W/m 35,4 km/h (5 Bft) 97,87 %
24.05.2021 15:26 14,2 C 13,3 C 10,0 C 82 % 1008,5 hPa 0,0 l/m 0 min 2 min 134 W/m 51,5 km/h (7 Bft) 93,62 %
24.05.2021 15:28 14,0 C 12,8 C 10,0 C 83 % 1008,6 hPa 0,0 l/m 0 min 2 min 107 W/m 41,8 km/h (6 Bft) 93,62 %
24.05.2021 15:30 13,8 C 12,8 C 9,5 C 84 % 1008,5 hPa 0,0 l/m 0 min 2 min 164 W/m 19,3 km/h (3 Bft) 91,49 %
24.05.2021 15:32 13,6 C 12,8 C 9,5 C 85 % 1008,6 hPa 0,0 l/m 0 min 2 min 194 W/m 29,0 km/h (5 Bft) 93,48 %
24.05.2021 15:34 13,4 C 12,8 C 9,5 C 86 % 1008,5 hPa 0,0 l/m 0 min 2 min 204 W/m 19,3 km/h (3 Bft) 93,62 %
24.05.2021 15:36 13,3 C 12,8 C 9,5 C 86 % 1008,5 hPa 0,0 l/m 0 min 2 min 194 W/m 16,1 km/h (3 Bft) 95,74 %
24.05.2021 15:38 13,3 C 12,8 C 9,5 C 87 % 1008,4 hPa 0,0 l/m 0 min 2 min 179 W/m 19,3 km/h (3 Bft) 82,98 %
24.05.2021 15:40 13,2 C 12,8 C 9,5 C 87 % 1008,4 hPa 0,0 l/m 0 min 2 min 159 W/m 22,5 km/h (4 Bft) 97,87 %
24.05.2021 15:42 13,1 C 12,8 C 9,5 C 87 % 1008,5 hPa 0,0 l/m 0 min 2 min 104 W/m 22,5 km/h (4 Bft) 97,87 %
24.05.2021 15:44 13,1 C 12,2 C 9,5 C 87 % 1008,6 hPa 0,0 l/m 0 min 2 min 69 W/m 38,6 km/h (5 Bft) 95,65 %
24.05.2021 15:46 13,0 C 12,2 C 8,9 C 87 % 1008,6 hPa 0,0 l/m 0 min 2 min 69 W/m 45,1 km/h (6 Bft) 100,00 %
24.05.2021 15:48 12,8 C 12,2 C 8,9 C 86 % 1008,6 hPa 0,2 l/m 0 min 2 min 87 W/m 29,0 km/h (5 Bft) 97,87 %
24.05.2021 15:50 12,8 C 11,7 C 8,9 C 86 % 1008,6 hPa 0,0 l/m 0 min 2 min 103 W/m 29,0 km/h (5 Bft) 97,87 %
24.05.2021 15:52 12,7 C 11,7 C 8,4 C 86 % 1008,6 hPa 0,0 l/m 0 min 2 min 126 W/m 38,6 km/h (5 Bft) 100,00 %
24.05.2021 15:54 12,6 C 11,7 C 8,4 C 86 % 1008,7 hPa 0,0 l/m 0 min 2 min 135 W/m 32,2 km/h (5 Bft) 100,00 %
24.05.2021 15:56 12,5 C 11,1 C 8,4 C 85 % 1008,7 hPa 0,2 l/m 0 min 2 min 144 W/m 32,2 km/h (5 Bft) 100,00 %
24.05.2021 15:58 12,4 C 11,7 C 8,4 C 86 % 1008,7 hPa 0,0 l/m 0 min 2 min 158 W/m 29,0 km/h (5 Bft) 100,00 %
24.05.2021 16:00 12,4 C 11,7 C 8,4 C 86 % 1008,7 hPa 0,0 l/m 0 min 2 min 171 W/m 25,7 km/h (4 Bft) 100,00 %
24.05.2021 16:02 12,3 C 11,7 C 8,4 C 86 % 1008,6 hPa 0,0 l/m 0 min 2 min 196 W/m 32,2 km/h (5 Bft) 100,00 %
24.05.2021 16:04 12,2 C 11,7 C 8,4 C 86 % 1008,7 hPa 0,0 l/m 0 min 2 min 214 W/m 22,5 km/h (4 Bft) 100,00 %
24.05.2021 16:06 12,2 C 11,7 C 8,4 C 86 % 1008,6 hPa 0,0 l/m 0 min 2 min 229 W/m 29,0 km/h (5 Bft) 100,00 %
24.05.2021 16:08 12,1 C 11,7 C 8,4 C 87 % 1008,6 hPa 0,0 l/m 0 min 2 min 259 W/m 25,7 km/h (4 Bft) 100,00 %
24.05.2021 16:10 12,1 C 12,2 C 8,4 C 86 % 1008,6 hPa 0,0 l/m 0 min 2 min 289 W/m 35,4 km/h (5 Bft) 100,00 %
24.05.2021 16:12 12,2 C 12,2 C 8,9 C 87 % 1008,5 hPa 0,0 l/m 0 min 0 min 301 W/m 25,7 km/h (4 Bft) 95,74 %
24.05.2021 16:14 12,3 C 12,2 C 8,9 C 87 % 1008,4 hPa 0,0 l/m 0 min 0 min 292 W/m 22,5 km/h (4 Bft) 97,87 %
24.05.2021 16:16 12,4 C 12,2 C 8,9 C 87 % 1008,5 hPa 0,0 l/m 0 min 0 min 277 W/m 22,5 km/h (4 Bft) 97,87 %
24.05.2021 16:18 12,4 C 12,8 C 8,9 C 87 % 1008,5 hPa 0,0 l/m 0 min 0 min 278 W/m 19,3 km/h (3 Bft) 97,83 %
24.05.2021 16:20 12,5 C 12,8 C 9,5 C 87 % 1008,5 hPa 0,0 l/m 0 min 0 min 255 W/m 22,5 km/h (4 Bft) 97,87 %
24.05.2021 16:22 12,5 C 12,8 C 9,5 C 87 % 1008,4 hPa 0,0 l/m 0 min 0 min 226 W/m 22,5 km/h (4 Bft) 97,87 %
24.05.2021 16:24 12,6 C 12,8 C 9,5 C 86 % 1008,4 hPa 0,0 l/m 0 min 0 min 218 W/m 16,1 km/h (3 Bft) 97,87 %
24.05.2021 16:26 12,7 C 12,8 C 9,5 C 86 % 1008,4 hPa 0,0 l/m 0 min 0 min 219 W/m 19,3 km/h (3 Bft) 97,87 %
24.05.2021 16:28 12,8 C 12,8 C 9,5 C 85 % 1008,3 hPa 0,0 l/m 0 min 0 min 253 W/m 19,3 km/h (3 Bft) 97,87 %
24.05.2021 16:30 12,8 C 13,3 C 9,5 C 85 % 1008,2 hPa 0,0 l/m 0 min 0 min 285 W/m 22,5 km/h (4 Bft) 95,65 %
24.05.2021 16:32 12,9 C 13,3 C 9,5 C 85 % 1008,2 hPa 0,0 l/m 0 min 0 min 296 W/m 16,1 km/h (3 Bft) 97,87 %
24.05.2021 16:34 12,9 C 13,3 C 9,5 C 85 % 1008,2 hPa 0,0 l/m 0 min 0 min 315 W/m 16,1 km/h (3 Bft) 97,87 %
24.05.2021 16:36 13,0 C 13,9 C 9,5 C 85 % 1008,3 hPa 0,0 l/m 2 min 0 min 342 W/m 22,5 km/h (4 Bft) 95,74 %
24.05.2021 16:38 13,1 C 13,9 C 9,5 C 84 % 1008,2 hPa 0,0 l/m 2 min 0 min 357 W/m 19,3 km/h (3 Bft) 97,87 %
24.05.2021 16:40 13,2 C 13,9 C 10,0 C 84 % 1008,2 hPa 0,0 l/m 2 min 0 min 353 W/m 16,1 km/h (3 Bft) 97,87 %
24.05.2021 16:42 13,3 C 13,9 C 10,0 C 84 % 1008,3 hPa 0,0 l/m 2 min 0 min 380 W/m 22,5 km/h (4 Bft) 93,48 %
24.05.2021 16:44 13,4 C 14,4 C 10,0 C 84 % 1008,3 hPa 0,0 l/m 2 min 0 min 395 W/m 16,1 km/h (3 Bft) 97,87 %
24.05.2021 16:46 13,5 C 14,4 C 10,0 C 83 % 1008,3 hPa 0,0 l/m 2 min 0 min 408 W/m 25,7 km/h (4 Bft) 97,87 %
24.05.2021 16:48 13,5 C 14,4 C 10,0 C 83 % 1008,2 hPa 0,0 l/m 2 min 0 min 374 W/m 19,3 km/h (3 Bft) 97,87 %
24.05.2021 16:50 13,6 C 14,4 C 10,0 C 83 % 1008,2 hPa 0,0 l/m 2 min 0 min 356 W/m 12,9 km/h (3 Bft) 95,74 %
24.05.2021 16:52 13,7 C 14,4 C 10,0 C 82 % 1008,3 hPa 0,0 l/m 2 min 0 min 353 W/m 16,1 km/h (3 Bft) 97,87 %
24.05.2021 16:54 13,8 C 14,4 C 10,6 C 82 % 1008,2 hPa 0,0 l/m 2 min 0 min 334 W/m 16,1 km/h (3 Bft) 97,83 %
24.05.2021 16:56 13,9 C 14,4 C 10,6 C 82 % 1008,2 hPa 0,0 l/m 2 min 0 min 327 W/m 16,1 km/h (3 Bft) 97,87 %
24.05.2021 16:58 14,0 C 14,4 C 10,6 C 81 % 1008,2 hPa 0,0 l/m 2 min 0 min 344 W/m 19,3 km/h (3 Bft) 97,87 %
24.05.2021 17:00 14,0 C 15,0 C 10,6 C 81 % 1008,1 hPa 0,0 l/m 2 min 0 min 359 W/m 12,9 km/h (3 Bft) 97,87 %
24.05.2021 17:02 14,1 C 15,0 C 10,6 C 81 % 1008,0 hPa 0,0 l/m 2 min 0 min 343 W/m 16,1 km/h (3 Bft) 97,37 %
24.05.2021 17:04 14,2 C 14,4 C 10,6 C 80 % 1008,0 hPa 0,0 l/m 2 min 0 min 332 W/m 22,5 km/h (4 Bft) 96,00 %
24.05.2021 17:06 14,2 C 15,0 C 11,1 C 80 % 1008,0 hPa 0,0 l/m 2 min 0 min 329 W/m 19,3 km/h (3 Bft) 97,87 %
24.05.2021 17:08 14,2 C 15,0 C 11,1 C 79 % 1008,0 hPa 0,0 l/m 2 min 0 min 397 W/m 19,3 km/h (3 Bft) 100,00 %
24.05.2021 17:10 14,2 C 15,0 C 11,7 C 79 % 1008,0 hPa 0,0 l/m 2 min 0 min 357 W/m 22,5 km/h (4 Bft) 97,87 %
24.05.2021 17:12 14,2 C 15,0 C 11,7 C 79 % 1008,0 hPa 0,0 l/m 2 min 0 min 365 W/m 25,7 km/h (4 Bft) 95,74 %
24.05.2021 17:14 14,3 C 15,0 C 11,7 C 79 % 1008,0 hPa 0,0 l/m 2 min 0 min 362 W/m 32,2 km/h (5 Bft) 93,62 %
24.05.2021 17:16 14,3 C 15,0 C 11,7 C 78 % 1007,9 hPa 0,0 l/m 2 min 0 min 330 W/m 22,5 km/h (4 Bft) 95,74 %
24.05.2021 17:18 14,4 C 15,0 C 11,7 C 79 % 1008,0 hPa 0,0 l/m 2 min 0 min 300 W/m 16,1 km/h (3 Bft) 95,74 %
24.05.2021 17:20 14,4 C 15,0 C 11,7 C 78 % 1008,0 hPa 0,0 l/m 2 min 0 min 304 W/m 22,5 km/h (4 Bft) 93,48 %
24.05.2021 17:22 14,5 C 15,0 C 11,7 C 78 % 1008,0 hPa 0,0 l/m 2 min 0 min 307 W/m 29,0 km/h (5 Bft) 97,87 %
24.05.2021 17:24 14,5 C 15,6 C 11,7 C 77 % 1008,0 hPa 0,0 l/m 2 min 0 min 345 W/m 25,7 km/h (4 Bft) 97,87 %
24.05.2021 17:26 14,5 C 15,6 C 12,3 C 77 % 1007,9 hPa 0,0 l/m 2 min 0 min 359 W/m 16,1 km/h (3 Bft) 97,87 %
24.05.2021 17:28 14,6 C 15,6 C 12,3 C 77 % 1007,9 hPa 0,0 l/m 2 min 0 min 335 W/m 22,5 km/h (4 Bft) 97,87 %
24.05.2021 17:30 14,7 C 15,6 C 12,3 C 78 % 1007,8 hPa 0,0 l/m 2 min 0 min 351 W/m 9,7 km/h (2 Bft) 95,74 %
24.05.2021 17:32 14,8 C 15,6 C 12,3 C 78 % 1007,8 hPa 0,0 l/m 2 min 0 min 347 W/m 19,3 km/h (3 Bft) 95,65 %
24.05.2021 17:35 14,9 C 15,6 C 12,3 C 77 % 1007,8 hPa 0,0 l/m 3 min 0 min 343 W/m 19,3 km/h (3 Bft) 98,59 %
24.05.2021 17:36 14,9 C 16,1 C 12,3 C 77 % 1007,8 hPa 0,0 l/m 1 min 0 min 387 W/m 12,9 km/h (3 Bft) 96,15 %
24.05.2021 17:38 15,0 C 16,1 C 12,3 C 77 % 1007,7 hPa 0,0 l/m 2 min 0 min 396 W/m 12,9 km/h (3 Bft) 93,62 %
24.05.2021 17:40 15,0 C 16,7 C 12,3 C 77 % 1007,7 hPa 0,0 l/m 2 min 0 min 370 W/m 16,1 km/h (3 Bft) 97,87 %
24.05.2021 17:42 15,1 C 16,1 C 12,8 C 75 % 1007,7 hPa 0,0 l/m 2 min 0 min 326 W/m 32,2 km/h (5 Bft) 97,83 %
24.05.2021 17:44 15,1 C 15,6 C 12,3 C 74 % 1007,7 hPa 0,0 l/m 2 min 0 min 302 W/m 19,3 km/h (3 Bft) 97,87 %
24.05.2021 17:46 15,1 C 15,6 C 12,3 C 74 % 1007,7 hPa 0,0 l/m 2 min 0 min 289 W/m 22,5 km/h (4 Bft) 95,74 %
24.05.2021 17:48 15,1 C 15,6 C 12,3 C 75 % 1007,7 hPa 0,0 l/m 2 min 0 min 278 W/m 19,3 km/h (3 Bft) 93,62 %
24.05.2021 17:50 15,1 C 15,6 C 12,3 C 74 % 1007,6 hPa 0,0 l/m 2 min 0 min 280 W/m 19,3 km/h (3 Bft) 97,87 %
24.05.2021 17:52 15,2 C 15,6 C 12,3 C 74 % 1007,6 hPa 0,0 l/m 0 min 0 min 243 W/m 29,0 km/h (5 Bft) 97,87 %
24.05.2021 17:54 15,1 C 15,6 C 12,3 C 74 % 1007,6 hPa 0,0 l/m 0 min 0 min 228 W/m 22,5 km/h (4 Bft) 97,83 %
24.05.2021 17:56 15,2 C 15,6 C 12,3 C 74 % 1007,7 hPa 0,0 l/m 0 min 0 min 246 W/m 25,7 km/h (4 Bft) 97,87 %
24.05.2021 17:58 15,2 C 15,6 C 12,3 C 74 % 1007,7 hPa 0,0 l/m 2 min 0 min 266 W/m 35,4 km/h (5 Bft) 97,87 %
24.05.2021 18:00 15,2 C 15,6 C 12,3 C 73 % 1007,7 hPa 0,0 l/m 2 min 0 min 282 W/m 22,5 km/h (4 Bft) 97,87 %
24.05.2021 18:02 15,3 C 16,1 C 12,3 C 73 % 1007,6 hPa 0,0 l/m 2 min 0 min 291 W/m 19,3 km/h (3 Bft) 97,87 %
24.05.2021 18:04 15,3 C 16,1 C 12,3 C 73 % 1007,7 hPa 0,0 l/m 2 min 0 min 302 W/m 19,3 km/h (3 Bft) 97,83 %
24.05.2021 18:08 15,4 C 17,8 C 12,8 C 73 % 1007,6 hPa 0,0 l/m 4 min 0 min 428 W/m 22,5 km/h (4 Bft) 96,81 %
24.05.2021 18:10 15,5 C 18,9 C 13,4 C 73 % 1007,5 hPa 0,0 l/m 2 min 0 min 445 W/m 16,1 km/h (3 Bft) 97,87 %
24.05.2021 18:12 15,7 C 19,4 C 13,4 C 72 % 1007,5 hPa 0,0 l/m 2 min 0 min 631 W/m 22,5 km/h (4 Bft) 97,87 %
24.05.2021 18:14 15,8 C 20,6 C 13,4 C 71 % 1007,5 hPa 0,0 l/m 2 min 0 min 652 W/m 22,5 km/h (4 Bft) 97,87 %
24.05.2021 18:16 15,9 C 21,1 C 13,4 C 71 % 1007,5 hPa 0,0 l/m 2 min 0 min 609 W/m 19,3 km/h (3 Bft) 97,87 %
24.05.2021 18:18 16,1 C 20,6 C 13,9 C 70 % 1007,5 hPa 0,0 l/m 2 min 0 min 591 W/m 35,4 km/h (5 Bft) 97,83 %
24.05.2021 18:20 16,2 C 21,1 C 13,9 C 70 % 1007,5 hPa 0,0 l/m 2 min 0 min 565 W/m 19,3 km/h (3 Bft) 97,87 %
24.05.2021 18:22 16,3 C 21,7 C 13,9 C 69 % 1007,5 hPa 0,0 l/m 2 min 0 min 548 W/m 19,3 km/h (3 Bft) 95,74 %
24.05.2021 18:24 16,4 C 22,2 C 13,9 C 69 % 1007,5 hPa 0,0 l/m 2 min 0 min 545 W/m 19,3 km/h (3 Bft) 97,87 %
24.05.2021 18:26 16,5 C 21,7 C 13,9 C 68 % 1007,5 hPa 0,0 l/m 2 min 0 min 554 W/m 45,1 km/h (6 Bft) 97,87 %
24.05.2021 18:28 16,6 C 22,2 C 14,5 C 68 % 1007,3 hPa 0,0 l/m 2 min 0 min 553 W/m 19,3 km/h (3 Bft) 97,87 %
24.05.2021 18:30 16,8 C 22,2 C 14,5 C 68 % 1007,3 hPa 0,0 l/m 2 min 0 min 575 W/m 22,5 km/h (4 Bft) 97,83 %
24.05.2021 18:32 16,9 C 22,8 C 14,5 C 67 % 1007,3 hPa 0,0 l/m 2 min 0 min 585 W/m 12,9 km/h (3 Bft) 97,87 %
24.05.2021 18:34 16,9 C 23,3 C 14,5 C 65 % 1007,2 hPa 0,0 l/m 2 min 0 min 421 W/m 12,9 km/h (3 Bft) 93,62 %
24.05.2021 18:36 17,0 C 22,8 C 15,0 C 65 % 1007,2 hPa 0,0 l/m 2 min 0 min 416 W/m 19,3 km/h (3 Bft) 95,74 %
24.05.2021 18:38 17,1 C 22,8 C 15,0 C 64 % 1007,2 hPa 0,0 l/m 2 min 0 min 411 W/m 19,3 km/h (3 Bft) 97,87 %
24.05.2021 18:40 17,2 C 21,1 C 14,5 C 63 % 1007,3 hPa 0,0 l/m 2 min 0 min 406 W/m 29,0 km/h (5 Bft) 97,87 %
24.05.2021 18:42 17,3 C 21,7 C 15,0 C 63 % 1007,3 hPa 0,0 l/m 2 min 0 min 401 W/m 22,5 km/h (4 Bft) 97,83 %
24.05.2021 18:44 17,3 C 21,1 C 15,0 C 63 % 1007,3 hPa 0,0 l/m 2 min 0 min 504 W/m 19,3 km/h (3 Bft) 97,87 %
24.05.2021 18:46 17,3 C 21,1 C 14,5 C 62 % 1007,3 hPa 0,0 l/m 2 min 0 min 529 W/m 19,3 km/h (3 Bft) 97,87 %
24.05.2021 18:48 17,4 C 21,7 C 14,5 C 62 % 1007,1 hPa 0,0 l/m 2 min 0 min 532 W/m 19,3 km/h (3 Bft) 97,87 %
24.05.2021 18:50 17,4 C 20,6 C 15,0 C 62 % 1007,2 hPa 0,0 l/m 2 min 0 min 489 W/m 25,7 km/h (4 Bft) 97,87 %
24.05.2021 18:52 17,4 C 20,0 C 14,5 C 62 % 1007,1 hPa 0,0 l/m 2 min 0 min 272 W/m 22,5 km/h (4 Bft) 97,83 %
24.05.2021 18:54 17,3 C 20,6 C 14,5 C 61 % 1007,3 hPa 0,0 l/m 2 min 0 min 427 W/m 32,2 km/h (5 Bft) 95,74 %
24.05.2021 18:56 17,1 C 19,4 C 13,9 C 61 % 1007,2 hPa 0,0 l/m 2 min 0 min 434 W/m 41,8 km/h (6 Bft) 100,00 %
24.05.2021 18:58 17,0 C 18,9 C 13,9 C 62 % 1007,2 hPa 0,0 l/m 2 min 0 min 409 W/m 22,5 km/h (4 Bft) 100,00 %
24.05.2021 19:00 16,9 C 18,9 C 13,4 C 62 % 1007,2 hPa 0,0 l/m 2 min 0 min 394 W/m 35,4 km/h (5 Bft) 100,00 %
24.05.2021 19:02 16,8 C 19,4 C 13,4 C 62 % 1007,2 hPa 0,0 l/m 2 min 0 min 387 W/m 38,6 km/h (5 Bft) 97,87 %
24.05.2021 19:04 16,8 C 20,0 C 13,4 C 62 % 1007,2 hPa 0,0 l/m 2 min 0 min 370 W/m 22,5 km/h (4 Bft) 100,00 %
24.05.2021 19:06 16,8 C 20,0 C 13,4 C 63 % 1007,1 hPa 0,0 l/m 2 min 0 min 364 W/m 19,3 km/h (3 Bft) 97,83 %
24.05.2021 19:08 16,9 C 20,0 C 13,4 C 63 % 1007,1 hPa 0,0 l/m 2 min 0 min 356 W/m 19,3 km/h (3 Bft) 100,00 %
24.05.2021 19:10 16,9 C 19,4 C 13,4 C 63 % 1007,1 hPa 0,0 l/m 2 min 0 min 339 W/m 19,3 km/h (3 Bft) 100,00 %
24.05.2021 19:12 16,9 C 18,3 C 13,4 C 62 % 1007,2 hPa 0,0 l/m 2 min 0 min 324 W/m 25,7 km/h (4 Bft) 100,00 %
24.05.2021 19:14 16,9 C 17,8 C 13,4 C 63 % 1007,2 hPa 0,0 l/m 2 min 0 min 308 W/m 22,5 km/h (4 Bft) 100,00 %
24.05.2021 19:16 16,8 C 17,2 C 13,4 C 63 % 1007,0 hPa 0,0 l/m 2 min 0 min 297 W/m 16,1 km/h (3 Bft) 100,00 %
24.05.2021 19:18 16,8 C 16,7 C 13,4 C 64 % 1007,0 hPa 0,0 l/m 2 min 0 min 289 W/m 19,3 km/h (3 Bft) 100,00 %
24.05.2021 19:20 16,8 C 16,1 C 12,8 C 63 % 1007,0 hPa 0,0 l/m 2 min 0 min 285 W/m 12,9 km/h (3 Bft) 100,00 %
24.05.2021 19:22 16,7 C 16,1 C 12,8 C 63 % 1007,0 hPa 0,0 l/m 2 min 0 min 277 W/m 32,2 km/h (5 Bft) 100,00 %
24.05.2021 19:24 16,6 C 16,1 C 12,8 C 63 % 1007,0 hPa 0,0 l/m 2 min 0 min 272 W/m 22,5 km/h (4 Bft) 100,00 %
24.05.2021 19:26 16,6 C 16,1 C 12,8 C 64 % 1007,0 hPa 0,0 l/m 2 min 0 min 260 W/m 12,9 km/h (3 Bft) 95,74 %
24.05.2021 19:28 16,6 C 16,1 C 12,8 C 64 % 1007,0 hPa 0,0 l/m 2 min 0 min 262 W/m 19,3 km/h (3 Bft) 100,00 %
24.05.2021 19:30 16,6 C 16,1 C 12,8 C 63 % 1006,9 hPa 0,0 l/m 2 min 0 min 246 W/m 16,1 km/h (3 Bft) 97,87 %
24.05.2021 19:32 16,6 C 16,1 C 12,8 C 63 % 1007,0 hPa 0,0 l/m 2 min 0 min 238 W/m 12,9 km/h (3 Bft) 97,87 %
24.05.2021 19:34 16,6 C 15,6 C 12,8 C 64 % 1007,0 hPa 0,0 l/m 2 min 0 min 231 W/m 19,3 km/h (3 Bft) 97,83 %
24.05.2021 19:36 16,5 C 15,6 C 12,8 C 63 % 1007,0 hPa 0,0 l/m 2 min 0 min 224 W/m 22,5 km/h (4 Bft) 97,87 %
24.05.2021 19:38 16,5 C 15,6 C 12,8 C 63 % 1007,0 hPa 0,0 l/m 2 min 0 min 214 W/m 22,5 km/h (4 Bft) 95,74 %
24.05.2021 19:40 16,4 C 15,6 C 12,8 C 62 % 1007,0 hPa 0,0 l/m 2 min 0 min 169 W/m 29,0 km/h (5 Bft) 95,74 %
24.05.2021 19:42 16,4 C 15,6 C 12,8 C 62 % 1007,0 hPa 0,0 l/m 0 min 0 min 47 W/m 19,3 km/h (3 Bft) 97,87 %
24.05.2021 19:44 16,3 C 15,0 C 12,3 C 63 % 1006,9 hPa 0,0 l/m 0 min 0 min 42 W/m 19,3 km/h (3 Bft) 95,74 %
24.05.2021 19:46 16,2 C 15,6 C 12,3 C 63 % 1007,0 hPa 0,0 l/m 0 min 0 min 47 W/m 25,7 km/h (4 Bft) 93,48 %
24.05.2021 19:48 16,1 C 15,0 C 12,3 C 63 % 1007,0 hPa 0,0 l/m 0 min 0 min 49 W/m 22,5 km/h (4 Bft) 97,87 %
24.05.2021 19:50 16,1 C 15,6 C 12,3 C 64 % 1007,0 hPa 0,0 l/m 0 min 0 min 55 W/m 12,9 km/h (3 Bft) 94,74 %
24.05.2021 19:52 16,0 C 15,6 C 12,3 C 64 % 1007,0 hPa 0,0 l/m 0 min 0 min 63 W/m 16,1 km/h (3 Bft) 96,49 %
24.05.2021 19:54 16,0 C 15,6 C 12,3 C 64 % 1007,0 hPa 0,0 l/m 0 min 0 min 66 W/m 12,9 km/h (3 Bft) 93,62 %
24.05.2021 19:56 16,0 C 15,6 C 12,3 C 64 % 1007,0 hPa 0,0 l/m 0 min 0 min 63 W/m 22,5 km/h (4 Bft) 95,74 %
24.05.2021 19:58 16,0 C 15,0 C 12,3 C 64 % 1007,0 hPa 0,0 l/m 0 min 0 min 57 W/m 19,3 km/h (3 Bft) 95,65 %
24.05.2021 20:00 15,9 C 15,0 C 12,3 C 64 % 1006,9 hPa 0,0 l/m 0 min 0 min 51 W/m 16,1 km/h (3 Bft) 95,74 %
24.05.2021 20:02 15,9 C 15,0 C 12,3 C 64 % 1007,0 hPa 0,0 l/m 0 min 0 min 46 W/m 16,1 km/h (3 Bft) 91,67 %
24.05.2021 20:04 15,8 C 15,0 C 12,3 C 64 % 1007,0 hPa 0,0 l/m 0 min 0 min 46 W/m 9,7 km/h (2 Bft) 95,74 %
24.05.2021 20:06 15,8 C 15,0 C 12,3 C 64 % 1007,1 hPa 0,0 l/m 0 min 0 min 47 W/m 19,3 km/h (3 Bft) 95,74 %
24.05.2021 20:08 15,7 C 14,4 C 12,3 C 65 % 1007,0 hPa 0,0 l/m 0 min 0 min 46 W/m 9,7 km/h (2 Bft) 97,87 %
24.05.2021 20:10 15,6 C 14,4 C 11,7 C 65 % 1007,0 hPa 0,0 l/m 0 min 0 min 43 W/m 12,9 km/h (3 Bft) 93,48 %
24.05.2021 20:12 15,6 C 14,4 C 11,7 C 65 % 1007,0 hPa 0,0 l/m 0 min 0 min 42 W/m 9,7 km/h (2 Bft) 95,74 %
24.05.2021 20:14 15,5 C 14,4 C 11,7 C 65 % 1007,0 hPa 0,0 l/m 0 min 0 min 44 W/m 9,7 km/h (2 Bft) 93,62 %
24.05.2021 20:16 15,5 C 14,4 C 11,7 C 65 % 1007,0 hPa 0,0 l/m 0 min 0 min 46 W/m 12,9 km/h (3 Bft) 95,74 %
24.05.2021 20:18 15,5 C 14,4 C 11,7 C 66 % 1007,0 hPa 0,0 l/m 0 min 0 min 46 W/m 6,4 km/h (2 Bft) 95,74 %
24.05.2021 20:20 15,5 C 14,4 C 11,7 C 66 % 1007,0 hPa 0,0 l/m 0 min 0 min 44 W/m 6,4 km/h (2 Bft) 97,87 %
24.05.2021 20:22 15,4 C 14,4 C 11,7 C 66 % 1007,0 hPa 0,0 l/m 0 min 0 min 42 W/m 12,9 km/h (3 Bft) 100,00 %
24.05.2021 20:24 15,4 C 14,4 C 11,7 C 67 % 1007,0 hPa 0,0 l/m 0 min 0 min 42 W/m 12,9 km/h (3 Bft) 97,87 %
24.05.2021 20:26 15,4 C 14,4 C 11,7 C 68 % 1007,0 hPa 0,0 l/m 0 min 0 min 44 W/m 6,4 km/h (2 Bft) 100,00 %
24.05.2021 20:28 15,3 C 14,4 C 11,7 C 68 % 1007,0 hPa 0,0 l/m 0 min 0 min 46 W/m 6,4 km/h (2 Bft) 100,00 %
24.05.2021 20:30 15,3 C 14,4 C 11,7 C 68 % 1007,0 hPa 0,0 l/m 0 min 0 min 43 W/m 12,9 km/h (3 Bft) 100,00 %
24.05.2021 20:32 15,2 C 14,4 C 11,7 C 68 % 1007,0 hPa 0,0 l/m 0 min 0 min 40 W/m 16,1 km/h (3 Bft) 100,00 %
24.05.2021 20:34 15,1 C 14,4 C 11,7 C 68 % 1007,0 hPa 0,0 l/m 0 min 0 min 37 W/m 16,1 km/h (3 Bft) 95,65 %
24.05.2021 20:36 15,1 C 14,4 C 11,7 C 68 % 1007,0 hPa 0,0 l/m 0 min 0 min 33 W/m 6,4 km/h (2 Bft) 97,87 %
24.05.2021 20:38 15,1 C 13,9 C 11,7 C 68 % 1007,0 hPa 0,0 l/m 0 min 0 min 30 W/m 12,9 km/h (3 Bft) 100,00 %
24.05.2021 20:40 15,0 C 13,9 C 11,7 C 68 % 1007,1 hPa 0,0 l/m 0 min 0 min 27 W/m 16,1 km/h (3 Bft) 100,00 %
24.05.2021 20:42 15,0 C 13,9 C 11,7 C 68 % 1007,1 hPa 0,0 l/m 0 min 0 min 25 W/m 16,1 km/h (3 Bft) 97,87 %
24.05.2021 20:44 14,9 C 13,9 C 11,7 C 68 % 1007,0 hPa 0,0 l/m 0 min 0 min 23 W/m 9,7 km/h (2 Bft) 93,62 %
24.05.2021 20:46 14,9 C 13,9 C 11,1 C 68 % 1007,1 hPa 0,0 l/m 0 min 0 min 20 W/m 12,9 km/h (3 Bft) 95,65 %
24.05.2021 20:48 14,9 C 13,9 C 11,1 C 68 % 1007,1 hPa 0,0 l/m 0 min 0 min 18 W/m 12,9 km/h (3 Bft) 97,87 %
24.05.2021 20:50 14,9 C 13,9 C 11,1 C 68 % 1007,1 hPa 0,0 l/m 0 min 0 min 16 W/m 22,5 km/h (4 Bft) 97,87 %
24.05.2021 20:52 14,8 C 13,9 C 11,1 C 68 % 1007,2 hPa 0,0 l/m 0 min 0 min 12 W/m 22,5 km/h (4 Bft) 97,87 %
24.05.2021 20:54 14,8 C 13,9 C 11,1 C 68 % 1007,2 hPa 0,0 l/m 0 min 0 min 10 W/m 19,3 km/h (3 Bft) 97,87 %
24.05.2021 20:56 14,8 C 13,9 C 11,1 C 68 % 1007,2 hPa 0,0 l/m 0 min 0 min 7 W/m 16,1 km/h (3 Bft) 97,83 %
24.05.2021 20:58 14,7 C 13,9 C 11,1 C 68 % 1007,3 hPa 0,0 l/m 0 min 0 min 6 W/m 12,9 km/h (3 Bft) 97,87 %
24.05.2021 21:00 14,7 C 13,9 C 11,1 C 69 % 1007,3 hPa 0,0 l/m 0 min 0 min 2 W/m 16,1 km/h (3 Bft) 97,87 %
24.05.2021 21:02 14,6 C 13,9 C 11,1 C 69 % 1008,0 hPa 0,0 l/m 0 min 0 min 0 W/m 29,0 km/h (5 Bft) 94,44 %
24.05.2021 21:04 14,2 C 12,8 C 10,6 C 70 % 1008,0 hPa 0,0 l/m 0 min 0 min 0 W/m 35,4 km/h (5 Bft) 95,74 %
24.05.2021 21:06 13,9 C 12,2 C 10,0 C 71 % 1008,1 hPa 0,0 l/m 0 min 0 min 0 W/m 25,7 km/h (4 Bft) 97,87 %
24.05.2021 21:08 13,5 C 12,2 C 10,0 C 72 % 1008,0 hPa 0,0 l/m 0 min 0 min 0 W/m 12,9 km/h (3 Bft) 98,28 %
24.05.2021 21:10 13,2 C 11,7 C 9,5 C 73 % 1008,0 hPa 0,0 l/m 0 min 0 min 5 W/m 16,1 km/h (3 Bft) 94,44 %
24.05.2021 21:12 12,9 C 11,7 C 9,5 C 75 % 1008,1 hPa 0,0 l/m 0 min 2 min 5 W/m 19,3 km/h (3 Bft) 97,83 %
24.05.2021 21:14 12,6 C 11,7 C 9,5 C 77 % 1008,2 hPa 0,0 l/m 0 min 2 min 3 W/m 19,3 km/h (3 Bft) 97,87 %
24.05.2021 21:16 12,4 C 11,1 C 8,9 C 78 % 1008,2 hPa 0,0 l/m 0 min 2 min 0 W/m 22,5 km/h (4 Bft) 95,74 %
24.05.2021 21:18 12,3 C 11,1 C 8,9 C 79 % 1008,2 hPa 0,0 l/m 0 min 2 min 0 W/m 16,1 km/h (3 Bft) 97,87 %
24.05.2021 21:20 12,1 C 11,1 C 8,9 C 80 % 1008,1 hPa 0,0 l/m 0 min 2 min 0 W/m 16,1 km/h (3 Bft) 97,87 %
24.05.2021 21:22 11,9 C 10,6 C 8,4 C 81 % 1008,1 hPa 0,0 l/m 0 min 0 min 0 W/m 16,1 km/h (3 Bft) 97,87 %
24.05.2021 21:24 11,8 C 10,6 C 8,4 C 82 % 1008,1 hPa 0,0 l/m 0 min 0 min 0 W/m 16,1 km/h (3 Bft) 95,65 %
24.05.2021 21:26 11,6 C 10,6 C 8,4 C 83 % 1008,1 hPa 0,0 l/m 0 min 0 min 0 W/m 12,9 km/h (3 Bft) 97,87 %
24.05.2021 21:28 11,5 C 10,6 C 8,4 C 83 % 1008,1 hPa 0,0 l/m 0 min 0 min 0 W/m 16,1 km/h (3 Bft) 100,00 %
24.05.2021 21:30 11,4 C 10,6 C 8,4 C 84 % 1008,1 hPa 0,0 l/m 0 min 0 min 0 W/m 16,1 km/h (3 Bft) 100,00 %
24.05.2021 21:32 11,3 C 10,0 C 7,8 C 84 % 1008,1 hPa 0,0 l/m 0 min 0 min 0 W/m 9,7 km/h (2 Bft) 100,00 %
24.05.2021 21:34 11,1 C 10,0 C 7,8 C 84 % 1008,0 hPa 0,0 l/m 0 min 0 min 0 W/m 12,9 km/h (3 Bft) 100,00 %
24.05.2021 21:36 11,1 C 10,0 C 7,8 C 85 % 1008,0 hPa 0,0 l/m 0 min 0 min 0 W/m 12,9 km/h (3 Bft) 100,00 %
24.05.2021 21:38 11,0 C 10,0 C 7,8 C 85 % 1008,0 hPa 0,0 l/m 0 min 0 min 0 W/m 16,1 km/h (3 Bft) 100,00 %
24.05.2021 21:40 11,0 C 10,0 C 7,8 C 85 % 1008,0 hPa 0,0 l/m 0 min 0 min 0 W/m 12,9 km/h (3 Bft) 100,00 %
24.05.2021 21:42 10,9 C 10,0 C 7,8 C 86 % 1008,0 hPa 0,0 l/m 0 min 0 min 0 W/m 6,4 km/h (2 Bft) 100,00 %
24.05.2021 21:44 10,9 C 10,0 C 7,8 C 86 % 1008,0 hPa 0,0 l/m 0 min 0 min 0 W/m 6,4 km/h (2 Bft) 100,00 %
24.05.2021 21:46 10,9 C 10,0 C 7,8 C 86 % 1008,0 hPa 0,0 l/m 0 min 0 min 0 W/m 6,4 km/h (2 Bft) 100,00 %
24.05.2021 21:48 10,8 C 10,0 C 7,8 C 86 % 1008,1 hPa 0,0 l/m 0 min 0 min 0 W/m 6,4 km/h (2 Bft) 100,00 %
24.05.2021 21:50 10,8 C 10,0 C 7,8 C 86 % 1008,2 hPa 0,0 l/m 0 min 0 min 0 W/m 6,4 km/h (2 Bft) 100,00 %
24.05.2021 21:52 10,7 C 10,0 C 7,8 C 86 % 1008,3 hPa 0,0 l/m 0 min 0 min 0 W/m 6,4 km/h (2 Bft) 100,00 %
24.05.2021 21:54 10,7 C 10,0 C 7,8 C 86 % 1008,3 hPa 0,0 l/m 0 min 0 min 0 W/m 6,4 km/h (2 Bft) 100,00 %
24.05.2021 21:56 10,6 C 10,0 C 7,8 C 86 % 1008,4 hPa 0,0 l/m 0 min 0 min 0 W/m 6,4 km/h (2 Bft) 100,00 %
24.05.2021 21:58 10,6 C 10,0 C 7,8 C 86 % 1008,3 hPa 0,0 l/m 0 min 0 min 0 W/m 6,4 km/h (2 Bft) 100,00 %
24.05.2021 22:00 10,5 C 10,0 C 7,8 C 86 % 1008,4 hPa 0,0 l/m 0 min 0 min 0 W/m 6,4 km/h (2 Bft) 100,00 %
24.05.2021 22:02 10,5 C 10,0 C 7,8 C 86 % 1008,4 hPa 0,0 l/m 0 min 0 min 0 W/m 16,1 km/h (3 Bft) 97,87 %
24.05.2021 22:04 10,4 C 10,0 C 7,8 C 86 % 1008,5 hPa 0,0 l/m 0 min 0 min 0 W/m 6,4 km/h (2 Bft) 100,00 %
24.05.2021 22:06 10,5 C 10,0 C 7,8 C 87 % 1008,5 hPa 0,0 l/m 0 min 0 min 0 W/m 6,4 km/h (2 Bft) 100,00 %
24.05.2021 22:08 10,5 C 10,0 C 7,8 C 87 % 1008,7 hPa 0,0 l/m 0 min 0 min 0 W/m 6,4 km/h (2 Bft) 100,00 %
24.05.2021 22:10 10,5 C 10,0 C 7,8 C 87 % 1008,7 hPa 0,0 l/m 0 min 0 min 0 W/m 12,9 km/h (3 Bft) 100,00 %
24.05.2021 22:12 10,5 C 10,0 C 7,8 C 87 % 1008,6 hPa 0,0 l/m 0 min 0 min 0 W/m 6,4 km/h (2 Bft) 100,00 %
24.05.2021 22:14 10,5 C 10,0 C 7,8 C 88 % 1008,5 hPa 0,0 l/m 0 min 2 min 0 W/m 6,4 km/h (2 Bft) 100,00 %
24.05.2021 22:16 10,5 C 10,0 C 7,8 C 88 % 1008,5 hPa 0,0 l/m 0 min 2 min 0 W/m 9,7 km/h (2 Bft) 100,00 %
24.05.2021 22:18 10,5 C 10,0 C 7,8 C 88 % 1008,4 hPa 0,0 l/m 0 min 0 min 0 W/m 6,4 km/h (2 Bft) 100,00 %
24.05.2021 22:20 10,5 C 10,0 C 7,8 C 88 % 1008,4 hPa 0,0 l/m 0 min 0 min 0 W/m 6,4 km/h (2 Bft) 100,00 %
24.05.2021 22:22 10,5 C 9,4 C 7,8 C 88 % 1008,4 hPa 0,0 l/m 0 min 0 min 0 W/m 12,9 km/h (3 Bft) 100,00 %
24.05.2021 22:24 10,4 C 9,4 C 7,3 C 88 % 1008,4 hPa 0,0 l/m 0 min 0 min 0 W/m 6,4 km/h (2 Bft) 97,83 %
24.05.2021 22:26 10,4 C 9,4 C 7,3 C 89 % 1008,3 hPa 0,0 l/m 0 min 0 min 0 W/m 12,9 km/h (3 Bft) 97,87 %
24.05.2021 22:28 10,4 C 9,4 C 7,3 C 89 % 1008,4 hPa 0,0 l/m 0 min 0 min 0 W/m 6,4 km/h (2 Bft) 100,00 %
24.05.2021 22:30 10,4 C 9,4 C 7,3 C 89 % 1008,4 hPa 0,0 l/m 0 min 0 min 0 W/m 9,7 km/h (2 Bft) 97,87 %
24.05.2021 22:32 10,4 C 9,4 C 7,3 C 89 % 1008,5 hPa 0,0 l/m 0 min 0 min 0 W/m 3,2 km/h (1 Bft) 97,92 %
24.05.2021 22:34 10,4 C 9,4 C 7,3 C 89 % 1008,5 hPa 0,0 l/m 0 min 0 min 0 W/m 3,2 km/h (1 Bft) 95,65 %
24.05.2021 22:36 10,3 C 9,4 C 7,3 C 89 % 1008,6 hPa 0,0 l/m 0 min 0 min 0 W/m 6,4 km/h (2 Bft) 97,87 %
24.05.2021 22:38 10,3 C 9,4 C 7,3 C 89 % 1008,6 hPa 0,0 l/m 0 min 0 min 0 W/m 9,7 km/h (2 Bft) 97,87 %
24.05.2021 22:40 10,3 C 9,4 C 7,3 C 89 % 1008,6 hPa 0,0 l/m 0 min 0 min 0 W/m 9,7 km/h (2 Bft) 97,87 %
24.05.2021 22:42 10,3 C 9,4 C 7,3 C 89 % 1008,7 hPa 0,0 l/m 0 min 0 min 0 W/m 9,7 km/h (2 Bft) 97,87 %
24.05.2021 22:44 10,2 C 9,4 C 7,3 C 90 % 1008,7 hPa 0,0 l/m 0 min 0 min 0 W/m 6,4 km/h (2 Bft) 97,87 %
24.05.2021 22:46 10,2 C 9,4 C 7,3 C 90 % 1008,7 hPa 0,0 l/m 0 min 0 min 0 W/m 3,2 km/h (1 Bft) 97,83 %
24.05.2021 22:48 10,2 C 9,4 C 7,3 C 90 % 1008,6 hPa 0,0 l/m 0 min 0 min 0 W/m 3,2 km/h (1 Bft) 97,87 %
24.05.2021 22:50 10,2 C 9,4 C 7,8 C 90 % 1008,7 hPa 0,0 l/m 0 min 0 min 0 W/m 6,4 km/h (2 Bft) 97,87 %
24.05.2021 22:52 10,2 C 9,4 C 7,8 C 90 % 1008,7 hPa 0,0 l/m 0 min 0 min 0 W/m 3,2 km/h (1 Bft) 97,87 %
24.05.2021 22:54 10,1 C 9,4 C 7,8 C 90 % 1008,7 hPa 0,0 l/m 0 min 0 min 0 W/m 6,4 km/h (2 Bft) 97,87 %
24.05.2021 22:56 10,1 C 9,4 C 7,8 C 90 % 1008,8 hPa 0,0 l/m 0 min 0 min 0 W/m 3,2 km/h (1 Bft) 97,87 %
24.05.2021 22:58 10,2 C 9,4 C 7,8 C 90 % 1008,8 hPa 0,0 l/m 0 min 0 min 0 W/m 9,7 km/h (2 Bft) 97,83 %
24.05.2021 23:00 10,2 C 9,4 C 7,8 C 90 % 1008,8 hPa 0,0 l/m 0 min 0 min 0 W/m 3,2 km/h (1 Bft) 93,62 %
24.05.2021 23:02 10,2 C 9,4 C 7,8 C 90 % 1008,8 hPa 0,0 l/m 0 min 0 min 0 W/m 6,4 km/h (2 Bft) 95,83 %
24.05.2021 23:04 10,1 C 9,4 C 7,3 C 90 % 1008,7 hPa 0,0 l/m 0 min 0 min 0 W/m 6,4 km/h (2 Bft) 97,87 %
24.05.2021 23:06 10,1 C 9,4 C 7,8 C 90 % 1008,7 hPa 0,0 l/m 0 min 0 min 0 W/m 9,7 km/h (2 Bft) 97,87 %
24.05.2021 23:08 10,1 C 9,4 C 7,3 C 91 % 1008,7 hPa 0,0 l/m 0 min 0 min 0 W/m 6,4 km/h (2 Bft) 97,87 %
24.05.2021 23:10 10,1 C 9,4 C 7,8 C 90 % 1008,8 hPa 0,0 l/m 0 min 0 min 0 W/m 6,4 km/h (2 Bft) 95,65 %
24.05.2021 23:12 10,1 C 9,4 C 7,8 C 90 % 1008,7 hPa 0,0 l/m 0 min 0 min 0 W/m 3,2 km/h (1 Bft) 95,74 %
24.05.2021 23:14 10,1 C 9,4 C 7,8 C 90 % 1008,7 hPa 0,0 l/m 0 min 0 min 0 W/m 6,4 km/h (2 Bft) 95,74 %
24.05.2021 23:16 10,1 C 9,4 C 7,8 C 91 % 1008,7 hPa 0,0 l/m 0 min 0 min 0 W/m 6,4 km/h (2 Bft) 95,74 %
24.05.2021 23:18 10,1 C 9,4 C 7,8 C 91 % 1008,7 hPa 0,0 l/m 0 min 0 min 0 W/m 6,4 km/h (2 Bft) 93,62 %
24.05.2021 23:20 10,1 C 9,4 C 7,8 C 91 % 1008,7 hPa 0,0 l/m 0 min 0 min 0 W/m 3,2 km/h (1 Bft) 93,62 %
24.05.2021 23:22 10,1 C 9,4 C 7,8 C 91 % 1008,6 hPa 0,0 l/m 0 min 0 min 0 W/m 6,4 km/h (2 Bft) 95,65 %
24.05.2021 23:24 10,1 C 9,4 C 7,8 C 91 % 1008,6 hPa 0,0 l/m 0 min 0 min 0 W/m 6,4 km/h (2 Bft) 93,62 %
24.05.2021 23:26 10,1 C 9,4 C 7,8 C 91 % 1008,6 hPa 0,0 l/m 0 min 0 min 0 W/m 16,1 km/h (3 Bft) 97,87 %
24.05.2021 23:28 10,1 C 9,4 C 7,8 C 91 % 1008,6 hPa 0,0 l/m 0 min 0 min 0 W/m 9,7 km/h (2 Bft) 97,87 %
24.05.2021 23:30 10,1 C 9,4 C 7,8 C 91 % 1008,7 hPa 0,0 l/m 0 min 0 min 0 W/m 6,4 km/h (2 Bft) 97,87 %
24.05.2021 23:32 10,1 C 9,4 C 7,8 C 91 % 1008,7 hPa 0,0 l/m 0 min 0 min 0 W/m 9,7 km/h (2 Bft) 97,87 %
24.05.2021 23:34 10,1 C 9,4 C 7,8 C 91 % 1008,8 hPa 0,0 l/m 0 min 0 min 0 W/m 16,1 km/h (3 Bft) 95,74 %
24.05.2021 23:36 10,1 C 9,4 C 7,8 C 91 % 1008,7 hPa 0,0 l/m 0 min 0 min 0 W/m 12,9 km/h (3 Bft) 93,48 %
24.05.2021 23:38 10,0 C 9,4 C 7,8 C 91 % 1008,7 hPa 0,0 l/m 0 min 0 min 0 W/m 6,4 km/h (2 Bft) 93,62 %
24.05.2021 23:40 10,0 C 9,4 C 7,8 C 91 % 1008,8 hPa 0,0 l/m 0 min 0 min 0 W/m 12,9 km/h (3 Bft) 95,74 %
24.05.2021 23:42 10,0 C 9,4 C 7,8 C 90 % 1008,8 hPa 0,0 l/m 0 min 0 min 0 W/m 16,1 km/h (3 Bft) 95,74 %
24.05.2021 23:44 10,0 C 9,4 C 7,8 C 90 % 1008,7 hPa 0,0 l/m 0 min 0 min 0 W/m 16,1 km/h (3 Bft) 93,62 %
24.05.2021 23:46 10,0 C 9,4 C 7,8 C 90 % 1008,8 hPa 0,0 l/m 0 min 0 min 0 W/m 12,9 km/h (3 Bft) 95,74 %
24.05.2021 23:48 10,0 C 9,4 C 7,8 C 90 % 1008,8 hPa 0,0 l/m 0 min 0 min 0 W/m 35,4 km/h (5 Bft) 95,65 %
24.05.2021 23:50 10,0 C 9,4 C 7,8 C 90 % 1008,8 hPa 0,0 l/m 0 min 0 min 0 W/m 22,5 km/h (4 Bft) 95,74 %
24.05.2021 23:52 10,0 C 9,4 C 7,8 C 90 % 1008,9 hPa 0,0 l/m 0 min 0 min 0 W/m 38,6 km/h (5 Bft) 97,87 %
24.05.2021 23:54 10,0 C 9,4 C 7,8 C 89 % 1009,0 hPa 0,0 l/m 0 min 0 min 0 W/m 29,0 km/h (5 Bft) 97,87 %
24.05.2021 23:56 10,0 C 9,4 C 7,8 C 88 % 1008,9 hPa 0,0 l/m 0 min 0 min 0 W/m 22,5 km/h (4 Bft) 95,74 %
24.05.2021 23:58 10,0 C 9,4 C 7,8 C 88 % 1008,9 hPa 0,0 l/m 0 min 0 min 0 W/m 22,5 km/h (4 Bft) 97,87 %
_ Min-Zeit 23:38 01:40 02:16 18:54 19:30 - - - - 13:20 00:30
Minimum _ 10,0 C 9,4 C 7,3 C 61 % 1006,9 hPa - - - - 3,2 km/h (1 Bft) 51,16 %
_ Max-Zeit 18:48 18:34 09:12 23:08 00:00 13:14 18:08 12:26 18:14 15:26 00:00
Maximum _ 17,4 C 23,3 C 15,0 C 91 % 1013,2 hPa 0,2 l/m 4 min 2 min 652 W/m 51,5 km/h
S-SW (7 Bft)
100,00 %
Durchschnitt _ 13,2 C 13,0 C 10,1 C 77 % 1009,2 hPa #1,0 l/m #4:30 h #3:14 h 213 W/m 17,5 km/h (3 Bft) 97,08 %
© 2021 W. Hausmann